GFSSGP_700_spd_048.txt.gz
Wind_Speed
9 7 3 7 8 11 20 24 23 16 17 18 4 6 4 13 15 13 19 14 6 17 25 22 22 22 19 17 14 10 8 5 4 2 2 1 4 5 5 5 7 8 9 9 9 10 10 10 10
8 8 5 5 14 19 23 10 7 19 13 13 16 9 8 10 9 10 14 15 14 25 24 24 24 23 20 16 12 9 7 5 4 3 2 4 5 4 6 8 9 9 10 10 10 10 10 11 11
7 7 8 12 18 26 27 9 16 11 1 6 9 18 22 21 16 10 13 12 21 28 27 23 22 22 19 14 11 8 5 5 5 4 6 7 5 6 8 9 9 9 9 9 9 10 12 13 13
4 1 10 13 22 22 15 15 13 9 1 5 7 9 13 18 22 15 16 21 27 29 28 24 19 20 17 13 10 6 4 5 7 9 9 7 8 8 8 8 8 8 9 10 11 12 14 14 13
5 7 16 18 18 20 19 7 6 5 2 5 6 8 10 12 16 13 23 30 31 31 30 28 22 20 15 12 8 4 4 8 10 9 9 9 9 8 7 6 6 7 7 9 12 14 16 16 14
11 9 16 21 21 19 9 11 16 6 9 1 2 6 6 6 14 13 19 24 28 28 29 21 19 18 14 11 7 6 9 10 10 10 11 9 9 7 5 3 4 6 8 10 12 14 17 18 17
12 14 21 20 20 16 13 16 18 20 6 14 8 3 2 2 7 21 25 18 20 16 28 22 20 15 13 10 7 8 9 9 9 10 10 9 8 5 2 1 3 5 8 10 12 15 17 18 19
13 15 21 23 24 3 4 8 8 6 21 18 9 6 2 3 5 7 8 24 17 26 20 15 12 12 12 8 7 8 9 10 11 11 9 8 6 3 2 2 5 7 9 10 13 15 18 19 21
12 19 22 20 18 6 7 6 2 1 7 6 8 8 5 2 6 11 10 22 20 26 22 19 17 15 10 7 8 9 11 12 13 10 9 8 6 3 3 6 8 10 12 13 14 16 18 21 22
15 19 17 14 20 23 24 16 8 5 9 6 7 8 4 3 6 6 8 19 25 21 21 21 16 12 9 9 10 12 14 15 14 11 10 9 6 7 7 9 12 12 14 17 17 18 20 23 26
16 20 14 8 12 16 9 6 7 10 6 11 13 2 1 8 13 12 16 19 11 16 15 13 11 9 8 11 12 14 15 15 13 11 10 7 6 7 11 13 15 12 19 21 22 25 26 27 28
17 14 14 4 4 7 3 7 8 5 5 14 12 3 7 10 14 15 17 16 16 13 12 10 8 9 6 10 14 16 16 16 17 12 11 9 9 11 11 15 25 27 25 20 25 27 29 31 33
13 15 9 5 4 4 6 6 2 13 3 12 12 2 10 11 11 19 14 15 14 12 10 10 11 11 13 16 15 19 20 20 16 11 10 10 11 14 18 18 23 27 26 27 29 32 33 33 33
7 10 3 8 6 4 8 15 7 10 12 9 10 15 12 13 13 17 14 11 9 8 8 8 8 10 14 14 17 19 20 19 18 15 12 11 17 18 19 21 25 26 25 29 31 34 34 35 36
2 3 8 9 12 6 11 13 12 10 10 17 17 16 16 15 15 13 10 7 6 4 4 5 6 7 9 11 12 16 20 20 19 16 17 13 24 21 18 24 27 28 28 31 33 34 36 37 37
8 3 2 1 4 4 3 13 14 10 15 16 18 18 19 18 16 12 10 10 7 7 7 5 4 5 7 9 14 17 21 24 28 28 26 25 28 25 24 26 26 28 30 32 34 35 36 38 40
8 10 14 9 10 5 4 6 11 13 13 14 15 16 16 16 11 13 13 13 13 11 11 9 11 10 14 15 15 18 21 22 22 33 30 34 36 26 24 26 23 25 30 33 35 35 36 37 38
15 16 12 9 10 11 11 9 15 15 14 13 15 16 19 21 19 15 17 14 15 10 8 15 16 15 18 21 22 17 14 14 10 11 13 22 21 21 22 21 23 26 33 35 36 38 37 38 39
6 8 14 13 12 11 12 15 15 17 16 16 16 17 18 16 22 23 16 20 21 23 19 18 16 19 22 22 17 13 9 7 7 8 12 17 18 17 21 25 27 29 33 35 37 38 39 39 40
9 10 10 12 10 12 15 13 12 18 19 20 19 19 20 19 23 19 20 20 23 26 22 18 22 22 21 16 14 11 7 8 10 12 16 16 18 22 25 27 31 33 33 34 37 37 38 39 40
13 9 12 10 8 11 8 14 17 17 18 20 21 21 21 22 25 23 22 24 27 28 25 23 22 16 15 12 11 10 12 12 14 16 19 19 21 22 26 28 30 34 35 35 35 37 39 40 38
10 3 7 13 14 14 5 10 16 15 18 22 25 25 25 24 26 25 25 28 26 24 26 19 17 15 13 11 13 12 15 16 19 20 24 23 26 27 30 31 34 33 34 35 36 36 37 38 41
3 9 7 12 12 8 5 13 28 24 27 28 27 24 24 24 23 24 24 24 22 21 18 19 15 12 11 13 14 14 14 15 17 20 25 28 32 37 36 36 36 37 38 39 39 39 40 40 41
2 4 10 12 15 11 17 22 13 22 23 23 21 24 25 26 27 26 22 24 17 15 16 14 13 15 14 16 17 15 17 20 24 25 27 30 33 34 33 36 38 38 38 39 39 39 39 40 40
6 10 7 7 9 5 10 10 4 12 15 12 23 20 19 27 30 27 25 22 21 16 15 13 14 19 19 18 18 20 21 23 27 30 31 34 34 32 31 34 37 37 38 38 39 39 39 40 40
11 7 3 3 3 6 9 5 6 7 6 6 13 15 22 24 24 21 21 21 19 18 16 15 17 22 20 19 20 21 25 28 30 33 34 35 36 32 33 35 36 37 39 40 41 40 39 38 38
11 5 1 9 4 5 10 16 3 4 6 4 11 16 19 18 18 20 21 21 21 21 19 18 21 24 23 23 25 26 28 31 33 36 37 37 34 32 33 35 37 38 39 41 41 41 39 37 37
8 7 4 4 2 4 11 15 14 5 4 2 12 16 19 17 18 20 22 23 24 25 24 22 22 27 26 28 28 30 33 34 37 38 36 34 33 31 34 37 39 40 41 41 41 42 39 35 35
7 9 10 11 7 1 4 5 6 5 5 3 10 16 19 17 16 19 23 24 25 28 28 27 23 27 31 34 32 35 38 41 45 38 32 34 33 33 36 38 39 40 40 39 40 41 39 38 35
8 10 9 11 9 6 4 10 3 3 1 2 6 13 16 20 17 20 21 26 28 30 29 33 29 31 35 36 36 36 39 42 44 40 34 34 33 33 36 39 40 40 39 39 39 39 37 37 34

GFSSGP_700_spd_051.txt.gz
Wind_Speed
5 6 6 5 9 8 12 14 15 17 20 7 25 13 7 6 8 9 9 11 19 25 21 24 25 25 23 22 19 16 13 10 7 4 1 4 7 7 9 10 11 10 10 9 9 9 10 9 10
4 7 11 7 11 13 17 12 18 14 13 8 11 10 9 15 12 16 13 17 18 22 28 30 26 26 23 21 17 14 12 8 5 3 3 8 8 9 10 11 11 10 9 9 9 10 10 10 10
2 6 12 4 10 18 16 6 18 13 6 16 17 12 11 13 18 21 12 15 19 24 32 30 30 27 25 20 14 12 8 5 5 5 9 9 9 11 11 11 10 9 8 8 9 10 11 11 10
5 6 7 13 16 13 20 20 16 15 6 5 6 14 14 10 12 18 18 14 22 33 37 35 31 27 23 16 12 9 5 6 7 11 11 10 11 11 11 9 9 7 7 8 9 11 13 14 13
9 6 10 12 17 18 20 11 15 11 6 3 2 5 6 7 12 13 19 18 32 41 40 35 30 26 20 16 13 7 6 8 12 12 11 12 11 11 10 9 7 6 5 7 8 10 13 15 14
7 4 11 20 20 12 11 12 10 11 7 5 7 4 6 10 14 14 21 17 18 31 35 33 30 27 18 15 10 7 8 11 11 10 12 12 12 10 9 6 4 4 4 6 7 10 12 14 15
4 10 20 26 32 19 15 18 16 3 7 8 5 6 1 7 12 17 23 19 22 30 33 32 26 20 18 12 8 8 11 11 11 12 12 12 10 8 6 3 2 2 4 6 8 10 12 14 15
5 11 19 20 26 10 11 5 3 2 7 4 9 13 15 4 7 15 18 23 24 19 17 30 21 14 12 10 9 11 12 12 12 13 12 11 8 6 3 1 2 5 8 9 11 12 13 15 17
10 20 28 23 18 17 15 19 18 12 5 11 8 7 6 7 10 11 13 12 18 23 25 22 18 17 16 12 9 10 12 13 13 13 10 9 6 3 2 3 6 10 13 11 13 15 16 17 20
9 14 17 15 19 22 17 8 6 5 12 11 7 7 10 8 9 10 13 16 29 22 24 22 16 9 6 7 7 10 12 12 13 12 11 9 6 4 5 7 9 12 15 14 18 16 19 20 24
9 17 11 18 14 9 8 10 9 15 13 12 12 12 6 11 12 12 19 24 17 25 22 19 14 11 9 9 11 11 11 11 12 12 10 8 8 10 9 10 12 16 18 21 22 20 21 25 26
15 14 12 6 10 4 7 3 14 10 9 12 18 7 8 11 13 14 19 9 21 21 17 16 13 9 6 8 10 12 12 13 14 13 12 11 11 12 12 14 17 20 25 24 24 25 28 30 31
14 9 12 2 5 5 4 15 14 6 5 10 10 5 11 14 14 18 13 13 14 18 14 9 5 7 12 12 10 9 9 11 13 14 14 12 11 16 18 16 18 19 22 23 26 28 30 32 31
4 8 8 8 1 3 5 5 7 11 11 16 10 14 12 12 7 9 16 11 11 9 7 6 8 9 7 5 5 7 7 8 13 15 18 16 17 19 14 18 16 19 24 24 28 28 28 32 35
4 6 2 7 9 3 7 7 15 9 11 11 14 12 13 10 4 10 13 9 6 7 6 5 2 3 3 1 3 7 8 11 12 17 21 22 19 22 16 18 24 27 25 26 26 28 32 34 34
5 2 9 4 2 3 5 8 12 11 17 17 17 15 16 7 1 3 4 6 9 8 7 6 5 5 2 1 4 7 10 13 17 22 30 29 23 26 27 28 27 29 28 26 26 29 32 33 33
3 14 7 5 8 9 9 8 13 15 18 17 17 15 15 13 11 8 5 3 6 6 6 4 1 3 6 7 8 11 14 17 20 24 26 27 29 34 35 31 27 26 26 26 28 31 34 35 35
7 9 12 13 18 14 8 8 17 13 11 13 14 17 17 13 10 10 7 4 4 5 5 6 6 7 11 12 16 16 13 13 16 17 17 19 22 22 23 25 24 25 28 31 32 36 37 36 36
4 22 19 13 12 15 20 23 18 18 14 10 12 14 14 14 11 11 14 13 11 7 9 7 10 12 15 18 19 15 12 12 12 9 11 13 15 21 23 26 26 28 32 33 35 36 36 35 35
19 21 7 14 13 9 9 26 18 21 20 15 14 15 18 19 21 18 19 20 18 14 12 12 15 16 19 21 17 13 13 12 10 13 13 15 18 22 24 27 28 26 28 32 35 36 36 35 36
14 15 14 7 3 11 12 12 21 22 23 19 18 18 17 21 20 23 23 26 25 22 19 17 19 20 23 18 14 12 12 11 13 15 16 18 21 23 25 24 27 31 30 32 34 35 35 36 34
20 13 4 4 8 6 8 4 6 20 19 21 22 21 20 22 24 24 23 25 29 27 23 22 21 25 21 15 13 13 13 16 17 19 18 16 19 20 23 25 28 32 31 31 33 33 35 36 38
3 12 6 7 12 15 8 3 15 16 18 21 22 27 27 27 27 27 27 25 28 30 25 24 27 23 18 15 13 14 18 21 20 21 21 23 25 27 30 34 33 33 32 33 35 36 37 38 39
3 3 6 5 2 7 22 12 5 20 30 27 23 24 26 27 27 29 27 25 21 21 25 27 25 20 17 14 15 17 20 22 24 24 26 27 29 36 38 39 39 37 36 36 37 37 37 38 38
5 8 3 4 7 5 10 12 24 12 20 25 27 27 28 25 28 30 30 29 29 22 19 22 21 17 12 15 18 18 21 22 24 26 28 29 31 38 41 36 34 34 35 36 38 38 39 39 39
7 5 3 4 1 7 5 5 2 10 11 18 22 18 27 30 36 36 36 37 35 25 18 19 19 16 15 16 20 20 21 24 27 31 31 33 37 39 39 31 31 34 33 35 37 39 40 39 37
11 4 6 5 6 4 5 3 8 11 8 6 20 24 28 26 29 33 33 29 23 18 17 19 22 22 20 21 21 23 23 25 29 31 36 40 42 45 38 29 33 33 33 35 38 39 40 38 36
9 5 6 6 2 3 5 7 10 9 5 12 13 13 13 17 20 21 22 22 21 18 17 21 25 27 27 28 27 28 27 29 34 34 37 39 43 47 35 29 31 32 35 36 39 40 39 38 36
13 13 11 10 8 4 1 1 5 5 4 2 8 10 10 11 11 15 18 21 22 21 21 21 25 28 28 29 31 35 35 35 34 41 37 45 43 39 31 31 32 34 35 38 39 40 39 37 36
11 8 6 14 8 2 2 8 9 6 6 8 6 8 15 16 14 15 16 20 25 25 24 23 25 27 32 35 38 39 40 41 38 43 41 46 37 32 32 32 33 34 37 38 38 38 38 37 34

GFSSGP_700_spd_054.txt.gz
Wind_Speed
7 7 9 9 7 5 7 9 11 18 19 18 14 17 13 7 8 6 8 13 15 21 25 27 27 27 27 26 24 21 18 14 11 8 5 7 9 8 10 11 11 10 9 8 8 8 8 8 7
7 8 10 8 6 7 10 7 9 6 10 11 10 16 13 16 18 18 8 14 16 24 28 30 28 30 30 27 23 19 16 13 11 8 6 10 9 10 12 12 10 9 8 8 8 8 9 8 7
7 9 10 5 10 15 7 6 18 15 12 14 13 12 12 5 15 22 16 13 21 25 28 31 32 32 30 27 22 17 15 13 10 8 10 11 11 12 11 11 10 9 8 8 7 8 9 10 9
8 9 6 10 12 9 18 24 25 19 8 7 9 8 12 12 15 20 16 16 19 26 30 34 34 31 29 24 18 14 14 11 10 11 14 12 12 11 10 10 9 7 6 6 6 7 9 11 11
11 8 7 8 6 14 16 18 9 12 9 9 10 11 10 10 13 14 16 20 22 26 36 38 36 34 28 24 15 15 12 10 11 15 13 13 12 11 10 9 6 4 3 4 5 8 10 11 12
11 10 9 3 9 17 21 13 8 9 3 0 7 7 8 9 10 13 16 17 17 30 38 34 30 27 23 22 19 13 11 12 15 14 12 12 11 10 8 6 4 2 2 4 6 7 9 10 12
10 8 11 8 14 16 14 14 16 16 14 16 7 7 6 8 12 16 17 23 28 34 29 30 28 28 28 18 13 10 13 15 13 12 13 11 10 9 8 5 2 1 4 6 7 9 10 10 13
6 9 12 12 15 16 11 10 10 8 6 9 9 5 11 11 9 11 14 21 31 29 37 33 22 26 16 14 10 10 13 13 13 13 12 12 11 9 5 3 3 5 7 7 8 9 11 13 14
8 14 13 10 12 10 15 12 14 14 10 12 13 10 7 7 6 8 14 17 27 32 34 32 20 17 13 12 10 11 11 13 12 13 13 12 10 6 5 5 8 9 10 10 9 15 12 13 16
8 12 9 10 10 18 20 16 14 10 14 14 9 5 7 7 7 6 7 11 10 20 23 22 26 23 15 10 8 10 11 12 13 13 13 12 11 9 9 9 11 10 11 14 15 12 15 19 21
5 11 11 12 12 23 13 12 10 9 10 10 9 10 4 10 8 9 7 19 20 25 24 23 17 13 9 8 7 9 11 11 10 12 12 12 11 9 11 13 12 12 15 18 19 21 21 24 26
15 15 19 17 13 8 6 9 9 1 8 8 5 8 9 12 11 10 26 19 29 23 18 17 14 12 9 8 8 9 11 10 11 12 13 14 13 14 17 13 13 17 20 21 24 26 26 28 29
11 11 6 7 9 4 4 7 6 11 7 1 7 10 15 12 6 11 21 20 27 26 20 16 13 10 8 6 7 10 9 6 9 11 13 15 16 15 14 16 16 18 21 24 25 25 26 26 27
6 1 9 9 6 3 2 10 2 1 5 12 10 9 13 15 4 5 22 21 20 24 19 14 11 10 5 3 4 4 4 6 8 10 13 14 17 18 18 19 20 20 22 27 25 25 26 26 28
3 1 9 4 7 6 2 9 4 2 9 9 10 10 15 12 8 11 14 17 14 13 9 9 6 6 7 5 5 4 3 4 6 10 12 18 20 23 24 21 21 25 27 25 27 24 25 28 30
3 2 4 3 9 7 2 8 8 6 9 14 14 12 11 6 9 12 11 14 11 10 10 11 11 9 6 4 2 1 5 6 9 13 18 21 23 25 28 27 28 34 31 26 26 24 27 31 34
6 6 6 3 2 2 13 15 12 11 13 15 14 12 7 5 7 9 11 14 10 10 9 9 7 5 2 2 4 7 9 11 12 16 20 25 27 26 27 31 33 26 25 26 27 29 33 33 35
4 11 7 10 6 5 11 10 14 13 14 14 16 13 10 5 7 10 13 14 11 7 5 4 1 3 5 7 9 11 11 9 11 15 19 18 18 18 20 22 22 24 26 28 30 33 34 35 38
6 13 20 23 23 23 16 13 16 14 15 18 17 14 11 8 7 8 9 9 10 11 9 7 8 9 11 11 12 13 11 11 12 15 16 14 16 17 18 20 24 27 30 32 31 33 35 38 39
13 13 17 14 9 14 21 19 18 21 20 14 11 10 12 14 15 13 12 13 9 10 12 12 11 12 14 14 15 16 14 13 15 15 15 16 17 17 19 24 28 30 32 31 34 34 36 36 37
17 16 13 13 6 5 9 15 24 23 20 16 15 11 12 12 15 17 18 15 14 13 14 15 15 14 17 18 19 16 15 14 13 15 16 16 18 21 25 26 25 24 27 29 33 34 36 36 36
22 7 8 8 4 3 1 6 21 26 25 24 19 21 19 17 22 18 17 18 17 19 21 22 21 18 19 22 20 16 14 13 15 16 17 19 22 23 24 26 29 31 29 31 31 33 35 36 37
11 12 10 10 6 6 9 3 13 17 26 29 26 26 25 25 23 23 24 21 19 19 24 25 24 21 23 24 18 17 16 15 17 18 18 22 24 25 27 30 29 35 39 35 34 36 37 37 38
7 8 8 6 4 2 11 11 17 20 23 31 28 27 30 30 27 26 24 24 22 21 28 20 26 28 26 20 17 19 20 17 18 19 21 24 26 30 30 35 38 46 41 33 37 38 39 39 40
5 5 1 1 1 5 3 6 18 13 15 28 30 27 23 29 30 29 27 27 25 26 28 22 25 25 22 19 18 18 18 19 20 22 25 29 31 33 34 36 42 48 42 36 35 39 40 41 41
12 8 4 3 3 4 6 6 9 7 11 16 23 27 34 25 24 24 26 26 26 26 25 30 28 22 21 20 20 19 20 23 26 29 30 34 37 36 30 39 42 41 43 36 36 40 42 42 40
3 5 5 2 6 3 3 3 8 12 12 11 18 23 23 26 28 23 27 28 24 29 32 31 25 23 23 23 21 22 24 28 31 35 38 36 41 32 46 46 44 48 44 33 37 41 41 39 40
9 5 4 4 2 3 4 5 10 10 4 6 4 16 22 20 20 23 26 26 29 32 28 24 23 23 24 23 24 26 30 33 32 35 37 41 50 39 46 42 52 40 39 40 38 39 38 38 39
15 15 13 10 9 4 1 3 1 6 1 5 5 3 1 6 12 15 16 17 19 20 21 21 19 19 21 24 26 30 36 35 34 42 49 40 54 41 41 50 37 36 37 39 33 34 37 38 40
19 16 17 10 7 4 4 8 8 8 10 11 5 5 6 8 10 9 9 11 13 15 17 20 19 21 21 22 25 33 31 40 44 39 56 43 50 56 51 44 35 38 38 27 32 34 38 39 39

GFSSGP_700_spd_057.txt.gz
Wind_Speed
12 11 11 8 6 6 7 5 7 9 16 13 15 15 10 9 11 6 4 11 11 15 25 29 30 29 28 27 21 23 19 16 12 9 6 7 8 7 7 8 8 8 7 7 6 7 8 10 9
10 9 9 5 5 10 9 8 8 11 7 6 8 11 7 14 12 11 16 9 11 18 24 29 32 31 30 30 27 19 20 15 12 9 6 9 8 7 9 8 8 7 7 7 6 7 9 12 12
9 9 7 4 10 10 6 7 14 9 9 11 8 8 10 10 17 12 13 12 14 20 26 30 33 35 33 31 29 25 19 14 11 8 7 11 9 10 9 8 7 7 7 7 7 8 10 12 12
7 7 6 12 11 7 12 15 14 18 11 9 10 9 14 12 13 11 13 18 18 25 28 32 33 34 33 28 25 20 17 11 9 8 11 11 12 11 9 7 6 6 5 6 8 12 13 14 16
7 5 9 11 4 6 13 16 14 1 6 9 10 8 8 8 12 11 8 12 16 24 28 33 36 35 34 26 21 19 11 9 8 11 13 12 12 10 8 6 5 3 3 5 7 9 12 15 17
9 9 6 9 5 11 13 12 8 6 10 10 9 8 9 11 11 12 12 12 20 27 32 36 36 29 31 23 15 15 15 10 12 14 14 14 13 10 8 5 3 0 3 5 7 7 8 13 15
9 8 10 9 7 8 8 11 11 6 13 15 12 23 13 11 9 10 14 14 20 25 38 35 33 31 27 23 22 17 11 15 16 16 16 15 13 10 7 4 4 3 4 5 6 8 11 12 15
9 9 10 10 8 8 7 15 14 13 11 10 10 10 9 13 13 14 16 18 21 29 36 40 35 33 24 26 15 12 16 18 16 16 15 13 12 9 8 7 7 7 7 7 9 10 12 11 12
9 12 12 10 10 5 11 12 15 13 12 11 12 15 14 14 9 9 8 11 26 39 32 25 36 29 28 16 11 14 16 15 14 15 15 14 12 10 9 8 8 8 8 6 9 12 11 12 15
11 13 10 7 7 11 10 10 12 9 12 13 17 15 11 8 6 3 6 13 19 21 32 29 26 30 22 15 15 16 15 14 15 15 14 13 12 11 10 9 10 9 8 11 14 13 15 18 20
9 15 11 11 12 13 8 8 9 5 12 11 13 8 6 6 4 5 7 8 16 21 33 17 34 31 22 11 7 9 11 12 15 16 14 13 13 10 10 11 11 11 12 14 15 19 24 25 24
16 12 13 14 11 8 5 10 6 4 7 2 2 2 8 5 4 5 3 15 23 25 31 24 21 19 15 13 11 11 12 14 14 13 11 10 11 11 12 15 15 15 16 16 19 23 23 26 25
9 6 1 3 6 2 7 8 3 6 3 6 7 6 14 8 7 20 22 28 26 22 21 17 12 11 9 9 11 10 10 10 10 12 12 11 12 14 17 17 17 17 17 18 23 27 26 25 25
5 3 5 3 3 3 2 7 3 7 5 0 4 9 9 11 11 10 23 22 28 22 17 14 12 10 7 6 7 6 6 7 8 10 12 15 15 15 17 18 19 20 19 24 29 26 23 23 25
1 1 5 3 3 7 6 4 2 2 7 11 6 12 14 13 10 13 16 19 20 22 18 11 11 10 11 8 9 7 8 8 9 10 13 14 15 17 18 21 22 21 25 30 29 22 23 25 29
4 2 2 7 6 7 8 5 6 5 4 6 8 13 15 10 13 12 11 12 13 14 19 19 18 14 13 12 10 8 7 6 8 10 11 15 18 19 21 22 22 24 29 25 21 23 26 29 32
5 7 3 3 9 8 11 8 7 7 11 9 8 12 12 13 15 15 12 13 15 17 16 16 14 13 10 8 6 5 3 5 6 9 13 16 19 22 22 22 21 24 20 21 23 26 30 32 33
2 4 2 6 10 17 9 11 10 8 10 8 6 9 9 10 12 15 16 17 16 16 15 13 10 8 5 4 2 3 5 6 8 10 13 16 19 18 18 18 18 20 23 26 28 30 33 34 35
5 4 12 22 18 18 20 15 12 9 11 12 10 9 11 12 10 14 15 15 15 13 10 9 7 5 4 3 5 8 9 10 10 12 15 17 16 17 19 19 21 24 27 32 34 36 36 35 37
13 10 18 15 11 18 13 21 14 17 16 11 7 9 10 12 12 13 13 12 10 11 8 8 8 7 7 8 10 11 14 14 14 15 16 17 18 20 19 21 24 26 30 31 31 33 34 36 37
16 19 21 21 16 9 6 15 20 23 24 18 17 12 9 8 4 4 7 8 8 8 8 10 11 13 13 14 15 15 15 16 15 16 16 18 20 20 22 24 26 27 30 32 34 36 37 37 39
20 9 14 11 8 5 7 5 15 22 26 25 21 19 15 14 11 10 7 5 5 4 6 12 14 17 19 19 19 17 17 17 16 17 18 17 18 21 24 26 27 28 32 34 39 38 39 38 38
15 15 9 8 9 7 5 3 4 21 28 26 23 25 22 19 15 15 14 12 10 9 9 12 15 19 21 22 21 20 19 18 18 17 16 18 21 24 26 28 28 32 31 34 35 38 37 40 49
11 7 4 8 4 2 7 4 5 12 21 23 27 28 26 26 23 20 17 18 20 17 14 17 16 16 19 24 24 24 18 20 18 17 18 22 26 30 33 34 39 35 43 38 47 47 38 44 44
7 2 3 3 2 5 5 6 14 15 14 20 24 25 29 30 28 26 25 21 21 22 21 18 19 16 18 20 24 20 18 18 20 19 24 28 32 34 40 41 45 34 47 41 40 47 46 42 41
8 7 6 4 2 3 4 6 6 7 12 12 16 16 22 26 28 27 27 25 21 24 24 21 21 23 23 24 22 20 19 20 21 24 29 31 31 38 44 44 42 46 47 45 51 52 47 39 43
9 8 7 3 2 1 4 8 12 11 11 9 7 14 22 25 25 23 21 23 20 25 24 23 23 25 29 24 21 22 23 25 26 30 25 33 35 38 37 41 48 50 43 43 49 44 42 43 45
13 8 6 7 2 3 4 6 10 11 5 4 3 8 13 18 18 19 19 15 16 21 25 25 30 31 26 20 20 24 28 31 27 29 35 37 34 54 42 56 50 41 46 49 44 44 46 40 40
20 17 12 8 5 4 1 5 8 3 4 3 5 2 3 12 17 19 16 12 13 20 25 26 26 25 22 22 24 24 20 22 24 26 30 38 43 43 39 46 45 50 53 49 42 43 40 36 34
22 23 16 12 7 8 6 14 12 15 12 11 8 7 5 2 3 6 3 5 9 11 12 14 16 19 19 21 23 27 27 25 29 31 37 30 36 47 41 46 50 51 45 44 40 33 29 32 36

GFSSGP_700_spd_060.txt.gz
Wind_Speed
12 13 11 7 5 4 9 7 6 6 10 10 15 16 11 5 10 4 2 5 9 19 24 29 29 28 26 26 26 22 17 14 10 7 4 6 8 7 7 6 5 5 5 7 10 11 13 13 12
11 11 8 5 7 8 8 8 9 7 5 5 10 16 18 17 14 10 8 6 10 18 23 29 31 31 29 28 27 25 16 11 9 7 5 9 8 8 9 7 5 4 6 9 11 13 14 15 15
10 8 7 5 7 6 5 10 15 16 8 5 9 9 10 10 15 14 13 14 11 19 28 31 33 33 31 30 28 24 17 13 12 8 7 10 9 10 9 7 5 4 6 9 12 13 14 15 15
8 6 9 10 4 5 6 13 12 8 9 6 6 7 10 11 9 7 10 11 15 20 27 31 33 33 32 30 27 22 17 12 11 8 12 12 12 11 10 8 4 4 7 8 10 11 13 14 16
7 7 11 2 1 5 10 8 6 7 3 4 6 8 8 7 7 6 12 14 18 22 28 30 34 34 33 31 27 24 14 14 11 11 14 14 13 10 10 7 4 3 5 8 9 11 14 17 18
9 8 5 3 2 6 7 11 9 4 5 7 6 9 10 10 12 8 5 11 14 18 27 33 35 36 39 30 26 20 17 13 9 15 15 15 13 11 8 6 3 2 7 8 10 13 15 16 15
9 8 5 5 5 7 6 10 11 10 9 11 11 16 16 17 11 9 10 10 14 20 29 35 39 39 34 33 28 20 18 18 18 18 18 17 14 12 9 5 2 2 4 9 10 9 13 13 14
9 8 7 5 6 5 8 11 12 12 10 14 12 11 13 10 9 11 11 17 20 20 29 31 36 37 29 29 29 22 23 18 18 19 18 17 15 12 8 4 3 2 6 5 5 11 12 12 15
7 9 7 4 4 7 10 12 9 12 10 13 15 14 12 13 14 11 12 17 17 23 27 26 34 20 30 31 33 26 21 22 21 20 18 17 14 10 8 6 2 5 5 3 8 10 12 16 19
8 8 7 4 6 8 10 7 9 12 10 12 15 14 13 14 10 11 10 10 18 27 25 31 24 27 25 37 26 23 22 19 17 18 17 16 13 10 6 3 5 7 7 8 11 12 14 18 19
9 11 9 10 10 9 11 4 8 12 10 9 11 13 9 7 7 6 4 7 19 29 9 22 22 29 30 32 26 20 18 17 17 16 14 13 10 7 7 6 8 9 10 11 13 13 16 20 22
9 10 9 9 8 4 2 5 10 9 4 3 6 5 7 1 2 4 7 12 13 25 24 15 23 32 24 24 19 17 16 14 15 14 13 11 10 7 8 9 12 12 14 15 15 18 22 22 20
3 7 2 2 2 4 4 6 9 4 3 3 7 8 5 6 7 7 9 16 11 15 31 35 29 21 19 18 18 15 14 13 12 12 11 10 9 9 10 12 13 16 17 18 19 24 26 21 20
4 4 2 1 3 4 5 6 9 7 4 4 11 5 9 9 11 20 35 31 26 24 22 17 17 15 12 12 12 11 10 11 11 11 11 12 12 11 12 13 16 17 17 19 23 24 21 21 22
4 5 1 5 1 6 7 6 5 4 4 7 4 11 6 11 14 7 14 20 26 22 16 14 13 12 12 11 11 10 10 11 12 13 13 12 12 13 14 17 17 15 17 21 22 19 20 22 24
2 1 2 1 2 6 6 8 6 4 2 7 5 11 6 5 13 15 20 20 18 17 18 18 17 17 15 14 13 11 10 10 9 9 11 12 15 15 17 18 17 17 18 19 18 20 22 24 27
6 1 8 4 3 12 9 11 7 2 4 3 7 12 11 13 12 13 16 14 15 15 15 16 16 15 14 13 12 11 10 9 8 8 12 12 13 16 17 15 15 16 15 17 20 23 26 29 32
4 4 4 14 12 22 27 20 12 5 3 4 6 12 8 9 11 13 15 16 17 16 17 17 16 15 14 12 9 7 5 5 7 9 9 11 14 15 15 15 15 15 17 20 23 27 31 33 34
9 6 6 12 12 18 17 16 15 9 6 8 9 9 12 12 12 14 16 17 17 17 16 15 14 13 10 7 4 3 3 5 7 9 10 12 14 15 14 16 17 17 19 22 26 29 31 33 36
11 10 11 17 12 21 13 12 16 15 8 6 5 7 13 16 15 16 16 15 14 14 13 13 10 9 8 6 7 7 8 8 10 10 10 13 15 14 15 17 19 20 23 26 29 32 35 34 38
15 14 16 17 21 20 8 6 20 23 20 14 13 11 12 12 13 14 12 11 12 11 9 10 9 9 8 10 12 12 11 10 10 9 11 14 16 16 18 21 23 25 27 30 32 32 30 33 38
15 13 15 17 6 4 4 4 8 19 23 22 21 19 16 16 15 14 11 11 8 9 11 12 13 10 11 15 17 15 14 14 14 13 14 17 18 20 21 24 26 28 31 33 35 37 38 36 39
11 11 13 3 6 7 8 4 10 8 17 22 23 21 18 16 14 13 9 6 9 8 8 10 11 11 12 16 18 17 17 17 21 18 16 17 19 22 24 28 30 33 36 40 43 34 35 40 42
6 5 2 5 4 3 4 7 7 10 13 14 19 21 20 18 19 16 15 14 13 13 16 14 13 13 14 15 14 17 20 23 22 19 17 19 23 26 28 31 34 35 42 49 49 36 45 38 43
4 6 4 3 1 5 5 6 11 11 13 12 14 17 18 22 22 21 18 16 16 14 14 17 20 12 15 15 14 16 20 23 21 19 20 24 27 29 33 36 32 38 45 48 44 51 46 46 46
6 4 2 2 2 4 7 5 6 10 12 11 8 8 10 14 16 21 19 17 14 20 14 15 21 16 17 20 17 20 18 19 22 21 23 27 30 30 32 27 40 34 31 35 45 52 47 47 52
5 5 6 3 3 3 7 12 16 10 15 10 9 9 7 9 12 14 16 16 14 14 16 19 20 20 21 21 23 22 18 20 22 24 27 31 24 27 36 36 37 40 47 41 44 47 47 46 44
11 8 3 4 1 4 5 7 9 14 4 6 6 6 6 6 8 10 9 12 11 12 15 19 20 22 25 28 24 21 20 21 23 23 26 27 28 30 30 30 39 38 41 42 45 47 43 41 39
13 16 13 9 4 4 1 7 11 6 3 5 8 7 6 5 6 8 11 14 12 13 16 17 21 23 25 23 21 20 20 20 21 24 26 27 29 37 31 32 36 42 46 43 47 44 41 35 32
20 18 19 17 7 7 7 19 16 13 14 11 12 9 5 6 5 5 5 6 7 9 11 11 13 14 14 15 16 16 20 21 24 23 25 38 28 32 38 34 41 46 45 49 40 39 34 31 32

GFSSGP_700_spd_063.txt.gz
Wind_Speed
11 11 12 10 6 6 11 5 4 4 6 12 12 12 10 7 8 6 6 9 13 20 25 26 27 27 24 23 22 21 17 15 11 8 6 6 7 8 9 9 9 9 9 10 10 12 14 15 16
9 10 11 8 8 9 6 2 6 6 8 5 7 15 15 18 16 12 7 9 15 17 24 28 28 28 26 24 23 21 19 16 12 9 7 9 8 8 9 10 9 10 10 10 10 12 14 16 17
8 10 8 6 7 5 4 4 12 11 6 7 7 10 14 9 13 12 8 9 16 18 25 29 30 31 29 27 26 24 20 16 11 7 8 9 9 9 10 9 9 10 9 8 9 13 15 15 15
9 8 8 9 6 4 4 10 7 6 5 6 6 7 10 10 8 11 20 19 20 24 25 28 29 30 29 27 25 24 20 15 10 10 11 11 12 11 10 9 9 8 7 8 10 13 14 14 15
8 7 7 3 3 3 7 5 4 4 2 2 5 6 7 9 6 9 10 14 18 22 24 28 30 31 31 29 28 25 21 15 12 10 12 14 14 13 10 9 8 7 6 9 10 12 13 15 16
8 5 4 4 2 4 7 9 6 3 2 6 7 6 8 6 5 7 14 15 17 20 25 30 33 32 35 37 35 28 21 18 16 16 15 16 13 12 10 8 7 6 7 9 10 12 15 14 14
7 6 6 7 3 5 7 10 8 7 5 8 10 12 14 9 10 7 8 13 16 18 27 35 39 37 40 38 40 32 23 23 18 17 17 16 15 13 8 6 5 5 6 7 8 11 10 10 14
6 5 6 6 4 2 7 10 8 10 9 8 10 9 9 7 6 6 11 12 18 20 26 29 44 35 37 40 45 33 27 24 22 21 19 19 16 11 7 4 3 4 4 5 6 8 9 11 14
3 4 7 6 4 5 6 10 8 11 13 11 10 12 11 8 7 10 14 14 21 22 28 28 26 33 29 34 44 37 36 26 26 22 21 20 15 11 8 4 1 2 3 6 7 8 9 12 14
6 5 5 2 5 9 7 6 9 13 14 11 10 12 12 11 14 14 14 15 21 23 26 25 31 31 30 27 30 28 32 28 25 25 21 17 14 10 7 4 4 3 6 7 10 9 11 15 18
8 6 6 5 6 7 6 3 8 13 11 8 9 11 14 10 12 14 14 13 17 17 20 34 37 36 17 28 33 33 30 31 26 23 18 15 13 9 8 6 4 6 8 10 11 11 14 19 20
10 8 8 8 8 5 3 4 9 7 4 4 6 2 7 6 9 10 9 9 14 31 19 25 20 24 20 35 35 33 25 23 20 16 16 14 12 10 8 6 6 7 10 12 12 14 18 20 15
5 8 2 5 7 4 5 6 8 4 2 3 3 5 3 5 3 8 10 16 5 15 23 14 12 22 37 35 27 24 18 16 15 16 16 14 11 10 9 8 8 10 12 15 15 18 21 15 15
3 7 3 1 3 5 6 7 8 5 3 4 3 6 8 6 5 11 18 14 23 28 34 36 38 32 29 25 22 20 19 18 17 17 14 12 12 11 9 10 11 13 16 14 16 18 15 16 19
1 3 3 3 3 6 8 9 10 5 5 3 3 3 7 14 13 27 30 35 31 29 28 28 25 23 21 21 19 18 16 16 15 14 13 13 12 11 10 12 13 14 14 14 16 13 15 18 22
1 1 1 2 5 7 7 6 13 4 3 6 5 7 4 9 12 14 11 23 20 17 16 18 18 18 18 18 18 17 17 16 15 14 13 13 13 12 13 12 15 13 14 13 13 15 17 21 25
4 2 2 2 8 6 9 11 14 7 1 2 6 8 10 11 12 14 16 19 16 15 15 17 19 18 17 18 19 17 16 15 15 14 14 13 13 12 13 15 13 12 14 13 14 17 20 22 23
5 6 1 6 10 14 18 15 11 8 2 4 6 8 9 15 13 13 16 17 17 15 16 17 17 18 19 18 16 15 12 11 12 12 11 11 11 12 14 13 12 13 14 15 17 20 22 23 28
7 6 9 6 12 19 16 20 7 7 5 4 5 8 8 11 14 15 15 15 15 16 16 15 14 14 14 13 11 10 9 10 10 10 11 12 11 12 14 12 14 17 16 18 21 23 25 28 31
7 9 7 8 12 15 17 5 10 7 3 2 3 7 11 13 15 20 22 22 19 17 16 16 16 15 13 13 12 11 11 9 9 10 11 12 12 13 14 15 19 19 21 22 24 26 29 31 32
10 12 11 13 15 8 9 5 9 10 11 10 8 9 13 12 13 16 18 17 17 16 16 15 14 14 13 12 11 11 10 9 8 9 13 16 15 15 16 19 21 22 22 24 26 31 36 38 38
14 8 9 12 11 2 4 4 3 8 15 15 14 16 15 18 16 15 14 13 12 13 14 14 14 14 14 14 14 14 14 13 12 13 19 20 16 16 19 21 23 24 25 27 30 33 36 43 46
8 5 8 8 5 4 3 2 6 9 9 11 13 19 21 19 20 16 15 15 13 15 14 14 15 16 17 17 16 17 19 18 17 20 21 22 18 17 21 23 25 27 28 30 35 37 41 38 39
5 5 3 4 3 1 4 5 6 9 10 8 10 16 20 23 21 19 19 18 17 18 17 15 14 17 18 19 18 16 17 18 21 22 25 24 21 20 23 27 29 30 32 35 40 36 31 34 35
8 5 1 1 2 2 5 5 9 9 8 9 7 12 17 21 23 23 21 20 21 21 19 18 16 16 13 23 20 15 14 15 21 23 28 25 23 22 25 28 30 29 31 31 40 31 39 34 37
9 8 4 3 2 1 4 5 5 12 10 10 9 5 11 18 20 22 23 23 20 16 20 18 11 13 18 15 17 21 18 23 21 25 25 23 24 23 22 16 24 31 29 31 32 40 42 36 43
8 8 5 4 2 1 4 8 13 7 12 7 5 7 4 8 12 16 18 19 19 18 18 20 18 16 20 23 20 20 22 22 21 22 22 22 23 25 27 27 32 37 30 33 31 38 42 39 43
10 5 3 4 3 3 4 4 4 10 3 7 9 7 2 6 9 12 13 15 15 15 16 18 19 19 21 24 25 24 23 22 21 23 23 21 18 27 32 28 30 31 31 31 30 34 38 51 37
14 14 9 5 5 3 2 5 4 8 5 10 10 10 8 6 3 8 12 12 13 16 19 21 21 21 22 23 23 21 21 21 21 20 22 24 26 27 36 36 28 34 35 38 41 35 41 38 35
17 16 15 9 6 9 9 17 16 7 6 9 12 12 6 11 8 6 6 9 9 8 11 15 17 17 18 18 14 16 17 14 17 19 22 26 26 27 25 36 29 36 30 29 42 46 38 38 34

GFSSGP_700_spd_066.txt.gz
Wind_Speed
9 8 9 10 6 8 15 7 8 7 5 12 19 34 12 16 9 7 6 10 14 18 21 25 23 23 24 22 21 20 18 14 12 8 5 3 7 10 12 13 13 12 12 11 12 13 14 15 16
7 6 9 6 8 13 10 4 4 6 9 7 15 15 25 16 12 11 9 9 15 20 23 25 26 26 25 24 22 22 20 17 15 11 7 7 10 11 13 13 13 12 11 12 13 12 13 14 15
5 7 4 6 8 13 8 3 9 9 8 9 8 16 19 20 13 17 14 14 9 19 26 27 28 28 27 26 24 23 21 20 17 14 10 11 12 13 14 14 14 12 12 12 12 12 13 14 15
6 8 6 6 10 7 6 9 7 4 4 10 7 7 15 18 10 8 17 15 21 19 26 29 31 29 28 27 25 24 23 21 18 15 13 14 14 14 15 16 14 12 12 12 11 11 12 13 13
7 6 7 7 6 5 6 7 2 2 5 7 5 7 6 11 13 12 14 18 22 23 22 29 31 31 31 30 27 25 24 23 20 17 15 16 16 16 16 15 12 11 11 10 9 10 11 11 11
5 4 8 6 3 3 6 4 3 3 3 5 6 7 6 5 7 12 12 13 16 26 26 29 31 32 34 32 30 28 26 22 19 17 16 16 17 16 16 13 11 9 8 8 8 9 9 10 12
5 5 7 6 4 2 4 7 5 4 4 7 9 11 11 10 12 13 15 13 10 12 22 30 31 34 37 38 35 32 28 22 19 16 17 17 17 17 13 11 10 8 6 6 6 7 9 11 12
5 2 5 4 4 6 7 10 8 6 10 7 7 6 9 6 10 13 16 14 18 23 25 31 34 37 36 37 35 29 28 24 20 19 21 18 16 15 14 11 8 5 4 4 5 7 7 7 11
4 3 5 4 4 3 7 8 5 8 12 13 10 10 12 11 9 11 10 16 15 22 22 25 33 38 37 25 32 35 29 26 23 20 20 20 19 17 11 9 5 3 1 2 5 6 8 9 13
3 5 3 4 6 6 9 7 9 11 13 11 11 11 11 12 13 12 13 17 17 23 23 22 39 29 24 36 35 45 40 36 30 29 22 22 18 15 11 8 5 3 1 3 6 8 9 11 15
6 8 8 7 10 9 8 6 8 10 8 5 9 10 12 15 14 15 15 17 18 22 20 22 33 31 29 37 26 40 36 32 29 23 25 19 15 11 8 6 3 3 4 7 8 10 10 13 15
8 9 12 13 12 11 8 7 9 9 6 5 5 6 8 10 10 12 16 16 16 19 24 30 26 33 29 24 27 30 38 30 25 26 22 18 15 12 9 6 6 4 7 9 11 11 14 16 13
7 8 6 8 11 9 6 8 8 8 4 5 6 7 6 7 8 11 12 15 16 21 18 21 30 30 15 17 23 35 27 24 24 24 21 18 14 12 11 10 7 7 8 11 11 13 15 13 9
3 3 5 4 2 4 7 10 8 11 6 6 3 9 5 1 11 13 16 16 19 19 15 23 17 14 34 34 33 26 26 24 23 21 19 17 15 13 13 10 9 9 11 12 13 14 13 12 12
4 2 2 2 4 5 7 8 6 11 5 7 3 2 7 16 11 11 18 17 15 18 18 22 30 34 27 28 28 27 25 22 20 18 18 17 15 14 12 11 12 11 13 15 13 12 12 13 15
3 3 7 2 3 7 6 3 5 4 6 8 6 4 1 5 13 21 26 27 31 28 27 25 27 25 22 22 22 21 20 20 20 19 18 17 16 14 13 13 13 13 14 13 12 12 13 15 17
8 7 4 5 4 7 7 6 8 5 5 4 7 4 3 6 10 13 11 13 16 15 15 18 20 22 22 23 23 23 22 21 19 19 19 17 16 15 15 15 15 15 13 13 13 14 15 17 19
9 9 6 8 5 10 9 9 8 6 3 3 7 8 7 4 9 13 16 14 14 12 13 15 18 19 18 21 21 20 21 20 19 19 17 17 17 17 15 15 16 15 15 15 15 16 17 19 22
9 6 6 7 5 8 8 11 4 2 1 4 5 7 10 11 8 11 15 16 15 15 16 17 17 17 18 17 15 13 12 13 15 16 17 17 18 16 15 16 16 16 17 17 17 18 19 22 24
8 8 8 4 5 11 8 3 5 7 2 2 3 6 11 14 14 14 16 17 17 18 18 18 17 16 15 14 14 14 14 13 14 17 18 17 17 17 19 17 18 18 18 19 19 21 23 25 27
10 11 7 7 9 8 6 5 12 13 9 7 8 9 11 13 15 16 16 16 18 19 18 17 17 16 16 16 17 16 15 15 13 13 16 16 18 22 21 18 18 19 20 20 22 23 24 29 33
11 8 9 8 6 3 4 3 3 3 4 9 12 13 14 15 17 20 21 17 16 17 18 19 18 18 19 19 18 18 16 16 15 15 16 18 22 25 22 18 20 21 21 23 24 26 28 30 33
9 6 6 7 8 5 5 9 4 4 6 6 12 17 18 17 17 19 19 21 19 19 19 19 20 20 20 20 20 19 20 21 22 21 23 23 24 24 24 20 20 22 24 25 26 28 29 31 36
9 5 1 4 5 8 3 5 4 3 6 6 7 11 21 25 22 20 19 22 22 21 21 21 20 20 19 19 21 20 20 22 26 24 25 27 28 28 26 24 22 24 25 30 31 27 30 35 36
9 7 7 6 5 3 3 5 11 8 4 7 9 11 16 22 29 26 26 24 22 24 24 23 21 17 16 17 19 22 22 23 24 23 25 30 30 30 27 25 26 25 26 27 27 30 27 36 34
14 13 6 6 5 5 4 6 2 6 8 9 8 10 12 21 24 32 29 26 25 24 25 24 21 21 18 19 21 19 29 27 25 28 30 32 30 30 26 30 28 31 27 27 32 31 24 25 30
11 13 10 2 2 3 7 7 7 4 8 6 3 7 7 13 22 28 30 30 29 27 24 22 22 19 17 16 22 25 20 22 22 29 32 34 30 29 29 29 30 33 36 31 33 34 32 31 34
12 12 8 7 4 6 6 7 8 2 3 3 7 6 6 6 14 20 28 30 31 30 30 29 29 29 28 29 26 26 28 28 28 27 27 31 29 28 26 27 30 34 37 26 27 28 24 34 40
16 14 10 7 6 4 3 5 7 7 4 5 4 7 6 2 0 10 17 20 23 28 30 27 27 28 27 27 25 27 27 28 28 27 27 26 27 29 33 35 34 38 33 41 34 28 33 34 40
18 17 18 13 10 8 7 15 16 14 10 6 8 8 7 8 9 7 6 14 20 23 26 27 28 29 27 28 27 27 25 22 22 21 26 24 27 34 38 41 32 35 33 43 37 30 38 39 38

GFSSGP_700_spd_069.txt.gz
Wind_Speed
7 7 5 6 9 12 17 19 8 11 14 13 14 24 33 26 29 18 9 7 19 23 21 23 24 24 23 23 22 19 17 14 11 8 6 5 10 13 14 15 15 14 15 16 16 16 17 16 16
4 5 5 5 13 20 16 4 5 6 11 11 17 19 33 32 22 18 10 5 10 17 20 24 26 25 25 24 23 20 19 16 13 10 8 9 13 13 15 15 16 15 17 17 16 15 15 15 16
2 4 5 16 18 20 7 5 7 11 14 10 12 19 17 23 23 25 11 14 15 17 21 26 28 28 26 25 24 23 21 19 16 12 10 12 14 15 16 16 15 16 17 16 15 14 14 14 14
3 4 5 10 17 11 8 12 9 10 19 11 16 0 19 22 17 20 19 18 19 20 24 26 28 27 27 26 25 24 22 19 16 14 13 15 17 18 18 17 16 16 14 14 14 13 13 12 12
3 3 10 16 12 7 4 9 7 6 14 9 10 21 11 14 17 14 17 16 21 24 21 24 28 29 29 29 27 26 24 21 18 16 15 17 18 19 18 16 15 14 13 12 12 11 10 10 11
5 6 14 13 5 3 5 5 6 6 7 10 14 14 5 6 15 16 17 18 18 31 25 29 30 30 32 31 31 29 25 22 19 17 17 19 19 19 18 16 14 12 11 11 9 9 8 9 11
6 10 16 11 9 8 2 6 9 7 7 7 12 9 8 12 15 19 16 11 9 19 22 30 28 39 40 39 36 33 29 24 21 20 20 18 20 20 16 15 13 11 10 8 7 7 8 9 12
8 9 13 8 8 3 4 7 14 7 10 11 9 6 5 14 15 17 15 15 14 16 9 7 30 30 40 40 39 34 31 27 24 23 23 21 20 19 16 14 11 8 7 6 6 6 6 9 10
6 11 13 7 6 2 6 10 16 4 10 15 10 7 18 14 12 13 13 17 17 16 19 18 25 37 32 34 39 42 32 30 28 28 25 22 20 20 15 12 9 7 5 4 3 3 5 7 10
6 15 7 4 6 8 9 12 14 8 10 10 16 17 14 13 13 12 10 13 14 17 19 23 27 33 34 38 25 29 39 39 35 29 27 24 20 19 14 12 10 6 4 1 2 4 7 9 11
6 12 12 9 9 8 10 10 8 9 16 2 8 18 16 13 15 12 12 15 19 21 19 22 27 22 29 34 33 27 49 46 38 31 27 29 22 16 15 11 7 4 3 2 5 8 10 11 14
10 10 11 12 12 10 8 9 7 10 10 13 12 14 17 13 15 14 11 14 18 20 18 25 24 26 30 32 31 40 46 50 43 33 34 24 19 17 14 11 8 5 4 3 8 10 10 11 9
11 9 10 9 9 13 11 8 9 8 6 9 13 14 14 9 11 12 10 10 14 17 20 21 27 34 26 31 31 25 31 36 40 34 24 19 18 16 14 10 8 7 6 7 10 11 10 9 7
8 9 9 7 5 8 10 12 10 10 10 11 10 10 7 10 14 16 12 13 16 19 26 26 27 18 17 18 24 27 32 36 35 29 20 20 18 16 14 11 9 9 8 11 12 11 10 8 9
11 14 14 9 5 5 11 15 16 11 6 5 8 7 4 14 11 6 9 10 18 16 19 19 25 17 18 29 33 36 30 26 21 18 18 20 20 17 14 12 12 11 11 13 13 11 11 10 11
12 16 17 8 5 7 9 7 8 4 1 4 4 3 3 6 21 8 12 13 6 9 10 13 12 19 34 27 23 22 20 19 19 20 23 23 20 17 15 14 13 14 14 15 13 13 12 12 14
16 15 13 6 6 7 8 8 8 2 3 5 5 6 7 4 13 17 14 17 22 21 24 29 24 20 20 20 20 20 20 21 23 23 21 21 20 17 16 16 17 16 16 16 15 14 14 15 15
6 14 7 11 7 7 9 10 4 3 4 5 7 9 9 8 10 7 9 9 10 11 16 16 16 17 18 18 19 20 21 22 22 21 21 21 19 18 18 19 18 18 18 16 15 16 16 17 17
12 10 12 8 4 8 8 10 1 3 7 8 6 11 11 8 6 7 9 11 12 12 12 14 16 15 16 18 19 20 20 20 21 20 19 20 21 20 19 20 19 19 17 17 16 17 18 18 18
11 12 12 9 7 7 9 6 4 7 4 10 11 8 9 11 12 9 11 10 10 12 15 16 16 18 18 17 17 17 17 17 18 18 19 20 20 20 20 22 21 20 19 17 17 19 20 21 21
11 13 11 9 11 12 10 7 9 10 11 10 12 12 7 8 18 11 12 12 15 17 17 17 17 18 17 18 18 17 18 18 19 17 18 18 20 21 22 23 24 24 21 19 19 21 22 26 25
15 12 12 12 14 1 11 4 15 12 11 14 14 15 16 10 16 16 15 16 16 17 18 17 17 18 18 18 18 18 18 17 16 16 18 20 22 23 23 26 28 27 24 23 23 24 24 25 32
15 8 10 11 13 15 8 11 11 13 12 14 17 17 18 18 18 17 16 16 16 18 19 19 19 19 20 19 20 19 19 19 20 22 21 23 24 25 25 26 26 28 26 25 26 26 27 26 31
13 10 9 10 13 11 13 9 14 13 5 5 7 15 20 20 21 19 19 19 20 21 22 21 22 22 22 21 21 21 22 22 23 23 24 30 29 30 31 29 30 31 29 29 29 28 29 27 34
13 12 10 7 8 9 4 6 15 6 5 5 8 9 15 22 25 24 25 25 25 24 24 24 24 23 21 21 21 21 22 24 24 24 25 28 26 30 32 34 33 36 31 33 31 30 28 32 35
18 17 9 7 7 9 7 8 4 6 5 6 7 9 12 15 23 29 28 28 26 27 28 26 25 24 22 18 17 19 19 24 28 27 27 28 28 32 38 38 37 37 34 36 35 32 34 40 34
16 23 17 10 6 6 10 11 12 7 6 6 4 4 8 11 14 24 28 28 27 29 29 26 25 25 26 25 23 22 23 24 28 19 24 25 33 35 41 41 40 34 36 40 36 38 43 35 36
15 16 14 15 9 9 17 12 9 4 3 5 2 1 2 5 9 14 22 28 29 28 30 29 28 29 28 29 23 25 26 26 28 29 32 32 34 35 37 39 41 34 34 35 38 39 34 38 41
20 17 17 15 20 7 8 8 2 2 5 6 6 4 2 1 2 6 12 21 26 31 35 36 33 31 32 32 33 32 32 33 32 32 32 34 34 33 41 37 36 32 38 40 38 39 34 41 35
21 21 23 19 18 16 17 19 13 12 14 12 11 10 8 6 5 7 8 13 19 23 27 30 32 31 30 31 35 35 33 32 31 32 31 31 29 29 29 29 35 41 37 32 34 38 38 36 33

GFSSGP_700_spd_072.txt.gz
Wind_Speed
7 5 5 1 9 14 22 21 17 14 14 14 19 18 15 21 32 21 29 33 49 7 12 21 23 24 24 23 23 22 20 18 15 12 10 11 15 17 17 16 16 16 16 18 19 19 17 15 14
3 1 5 6 17 24 18 9 12 11 13 20 20 28 29 27 26 26 33 45 46 18 13 23 27 28 27 26 26 25 22 19 15 12 10 14 17 17 18 17 17 18 18 19 18 18 17 16 16
2 4 7 15 20 27 17 10 9 13 10 14 19 16 14 15 23 33 34 21 17 12 20 25 29 30 28 27 26 24 22 19 16 13 11 15 17 19 18 18 19 19 18 18 18 17 16 15 14
2 6 10 11 16 17 15 13 13 10 21 27 21 18 18 13 24 24 21 20 18 23 17 24 26 26 26 25 25 25 23 20 16 13 12 16 17 18 19 19 19 17 17 16 17 15 14 13 13
5 4 15 21 19 22 10 12 18 13 21 24 7 12 16 19 17 22 19 14 16 23 20 22 27 26 27 26 27 26 23 20 17 13 14 17 18 18 19 19 18 16 16 15 14 13 13 12 13
8 13 19 19 14 12 14 16 12 11 16 14 16 20 17 10 11 16 19 16 16 24 21 26 27 29 32 32 31 28 25 22 18 16 16 18 20 20 20 19 17 16 15 13 12 11 11 10 11
8 13 20 20 17 4 3 12 10 15 21 30 28 19 6 12 8 15 14 13 19 18 17 24 26 30 40 34 31 29 26 22 20 17 20 22 22 23 21 19 16 14 13 11 10 9 7 7 10
11 14 18 18 20 11 9 12 14 13 12 21 8 10 17 18 6 10 14 11 11 12 8 9 19 16 29 35 33 32 28 24 21 21 23 25 20 21 19 17 15 14 11 10 7 4 3 4 8
11 14 14 14 14 11 6 11 21 24 10 7 16 13 12 18 7 10 11 10 10 14 14 13 12 11 29 27 34 33 31 26 25 27 28 26 24 23 21 17 15 12 11 7 5 2 2 6 8
8 14 11 13 14 14 12 13 20 21 18 24 16 9 16 15 7 10 13 11 13 15 14 14 16 13 26 29 31 38 39 33 28 29 32 30 27 25 21 18 14 12 8 4 2 1 5 5 6
10 16 17 16 16 14 13 11 16 16 24 20 9 17 19 20 10 9 13 12 10 11 9 12 15 21 32 27 31 21 40 40 35 34 33 29 28 19 19 16 12 8 6 4 1 4 6 10 10
11 13 15 16 16 17 15 13 14 11 15 21 19 16 17 16 13 9 12 14 13 13 14 13 16 18 33 21 33 29 26 38 38 39 36 28 27 24 18 14 10 9 6 2 3 6 9 9 5
14 15 14 13 14 14 15 15 14 13 12 20 23 16 16 16 19 17 13 11 14 13 14 15 17 30 26 27 40 35 37 43 46 47 45 34 24 20 16 13 10 8 5 5 5 8 8 7 5
15 13 15 19 9 13 12 13 15 8 15 14 10 16 17 18 22 23 13 11 8 11 7 15 17 29 22 32 34 36 34 37 51 49 35 25 21 19 16 13 11 9 8 7 7 9 9 7 6
16 19 17 19 20 15 13 17 18 23 11 5 9 5 16 21 25 8 10 9 9 9 14 18 19 20 24 20 22 22 22 28 38 32 25 25 25 20 16 14 12 10 9 8 11 11 11 8 8
18 18 19 25 9 5 9 18 20 13 15 15 3 2 10 11 23 14 8 7 11 11 13 12 16 17 17 15 17 23 26 35 33 28 29 29 20 19 16 13 12 11 11 13 13 13 12 10 12
14 21 18 8 14 11 13 15 20 8 10 9 6 7 11 4 11 15 21 11 8 7 8 10 15 26 33 36 36 34 30 28 27 28 27 23 21 18 14 14 14 14 15 16 15 14 12 12 15
9 15 12 10 8 11 13 10 7 8 6 3 8 5 8 9 3 4 8 15 19 23 27 24 27 24 22 20 20 22 27 26 25 22 19 19 19 17 17 17 17 16 19 18 17 14 14 14 16
17 16 17 8 7 9 13 10 6 7 6 9 12 12 11 5 7 3 3 6 11 15 15 19 19 18 18 18 16 19 18 18 17 17 18 18 18 18 20 21 19 19 20 19 17 17 17 17 17
13 14 16 12 7 6 9 12 8 8 12 7 8 11 15 13 13 6 5 6 5 10 15 15 17 17 15 15 14 15 16 16 16 19 19 19 20 20 20 22 21 21 22 22 19 19 20 21 19
11 14 17 13 9 12 15 15 8 10 10 11 12 9 10 10 5 6 6 5 10 12 12 14 14 16 15 15 15 15 16 17 19 18 19 19 19 20 21 23 24 22 25 25 23 24 23 23 23
14 11 17 14 13 13 7 14 18 16 14 12 17 15 9 7 7 9 8 10 10 13 14 12 11 12 15 14 16 17 16 15 15 15 15 17 19 21 23 24 27 27 26 29 27 28 26 26 31
16 11 11 13 15 17 11 16 2 9 18 18 16 18 16 9 12 10 12 11 12 12 12 13 15 17 15 15 15 16 16 16 17 17 15 18 20 22 25 27 28 26 27 29 32 32 29 29 31
16 16 14 14 17 15 18 11 6 8 13 17 15 19 19 19 15 14 12 13 13 14 15 16 17 17 18 17 21 18 17 18 20 20 21 19 19 24 23 31 27 30 34 35 31 36 33 32 31
17 15 12 9 11 8 5 11 7 7 11 6 5 16 17 20 19 19 20 20 18 19 19 19 19 20 21 18 16 18 19 20 23 25 25 21 23 23 21 18 24 32 36 37 41 38 38 35 33
19 19 9 6 4 4 9 8 6 10 6 4 6 10 10 14 22 24 24 27 25 23 23 23 23 23 23 22 19 16 18 20 20 22 22 24 31 26 29 28 31 36 39 42 43 48 41 36 35
18 25 23 13 14 8 11 14 8 7 3 5 5 6 9 12 17 24 29 28 31 28 26 26 25 24 25 24 23 21 20 22 23 24 24 23 22 23 26 30 36 39 40 45 45 34 41 40 36
25 16 21 18 5 10 11 14 14 9 6 6 6 6 6 10 15 14 24 27 31 31 30 26 27 26 26 27 27 27 25 27 28 27 26 26 28 31 33 33 33 33 40 43 39 36 31 35 39
24 22 17 20 20 8 5 4 12 8 3 6 6 7 5 4 6 7 17 22 28 29 30 31 28 28 31 33 34 31 31 32 34 32 30 31 33 32 33 31 29 30 32 29 35 36 32 38 33
25 24 23 18 15 16 15 17 6 6 7 9 9 10 10 9 7 8 7 10 23 25 27 31 29 36 34 35 37 33 37 35 33 34 32 30 31 32 32 32 32 35 28 34 27 34 27 31 31

GFSSGP_700_spd_075.txt.gz
Wind_Speed
8 6 6 4 8 8 20 26 23 28 12 11 11 15 17 17 15 17 22 22 17 23 29 20 32 34 33 31 29 26 24 21 18 15 13 15 19 21 21 20 19 18 18 20 19 18 15 13 12
3 3 5 3 10 16 21 15 15 13 14 16 20 23 24 19 23 25 29 31 34 28 27 31 31 35 35 33 31 29 26 23 19 15 14 18 21 21 20 19 19 20 20 20 18 17 16 15 13
3 1 3 6 12 24 22 21 12 14 19 17 22 28 20 15 15 21 29 33 36 35 29 48 28 36 36 34 32 29 26 23 20 16 15 18 19 20 19 19 20 20 19 18 18 18 15 14 11
3 5 9 14 16 22 24 3 10 15 22 22 22 29 13 20 17 21 21 26 25 32 31 23 45 41 38 35 33 30 27 25 21 18 18 20 19 19 19 20 20 19 18 18 18 16 13 13 12
5 1 11 22 29 26 20 13 15 17 22 21 16 29 24 28 22 24 20 21 16 17 15 43 40 39 37 37 35 33 30 28 24 20 20 21 21 20 20 21 20 19 18 17 15 13 13 12 12
4 8 21 32 33 34 15 18 21 15 17 20 19 17 17 11 24 25 16 14 12 14 14 22 31 35 39 43 40 37 31 28 24 20 21 21 22 21 21 21 19 18 17 16 14 12 11 12 11
2 10 22 30 29 23 12 16 11 15 19 17 16 18 15 2 13 16 12 9 12 13 18 23 28 13 39 48 44 39 33 28 23 21 23 23 23 24 23 21 20 18 16 15 13 10 9 10 7
10 17 27 21 22 18 18 15 13 19 25 20 19 20 18 23 10 4 9 8 12 12 10 6 4 17 24 49 50 41 35 28 25 25 26 26 26 27 26 23 18 18 16 12 10 8 6 5 5
1 13 20 19 19 20 15 13 19 22 21 21 22 36 13 17 16 8 9 7 6 9 12 9 7 5 8 26 37 38 32 28 27 29 30 30 30 27 20 19 17 15 15 12 7 5 3 4 2
12 15 18 17 19 23 19 17 19 16 21 23 21 20 15 13 13 11 12 8 11 13 14 12 11 8 9 10 29 34 30 29 30 31 32 31 28 25 22 20 18 17 12 10 5 3 3 2 4
15 21 18 19 20 20 17 17 15 20 21 16 17 12 11 11 13 13 16 10 13 11 13 12 13 14 11 10 20 26 39 34 30 32 32 27 27 25 25 20 16 13 10 7 4 2 2 3 2
18 17 16 19 23 25 23 18 15 22 10 7 10 13 11 12 14 17 19 14 16 14 13 14 12 8 7 21 23 26 39 26 41 41 37 31 30 27 20 19 14 13 11 6 3 2 4 3 1
26 12 14 22 22 23 22 14 16 23 19 17 16 12 10 16 18 20 24 14 11 11 12 10 6 9 2 28 16 27 23 29 38 42 36 32 31 28 25 21 16 13 9 5 4 3 5 5 3
15 19 16 21 24 27 20 18 17 19 25 24 11 14 14 15 21 24 10 13 14 9 8 5 6 16 19 19 23 31 29 38 34 40 38 37 35 28 26 18 15 12 10 5 6 5 6 6 6
16 16 21 23 25 23 21 20 17 25 25 23 32 12 13 14 19 15 4 8 8 11 7 7 6 6 23 10 17 40 31 35 36 37 39 35 33 27 22 17 14 10 9 8 8 8 7 7 9
19 17 23 17 21 14 14 22 18 15 29 17 9 7 13 7 15 22 15 1 8 7 9 7 16 8 11 16 23 23 23 29 19 31 39 35 29 22 20 18 14 12 11 12 10 10 10 10 10
14 26 23 25 16 6 15 21 11 21 16 7 5 2 9 8 8 14 20 8 5 9 7 8 11 13 22 16 18 20 21 21 16 24 36 33 32 24 22 20 15 14 14 12 12 13 13 13 12
15 19 14 17 12 11 10 20 13 11 9 5 3 2 8 5 3 8 16 21 17 13 14 15 16 19 21 21 22 26 29 32 36 35 33 33 27 24 22 20 17 16 14 15 14 16 16 16 16
18 21 24 13 10 9 12 17 15 14 7 5 4 5 8 11 3 2 7 15 18 24 29 30 30 26 24 25 27 28 31 31 34 33 29 25 25 24 21 20 18 16 16 16 18 19 18 18 18
28 17 15 15 10 5 11 11 15 14 9 10 8 10 10 9 9 4 2 8 13 15 16 18 19 17 17 16 16 17 18 16 15 17 22 26 23 21 21 20 18 19 20 21 21 22 21 22 23
16 12 15 14 15 10 15 16 8 13 11 9 9 10 11 9 4 8 5 6 8 11 12 13 14 14 12 13 15 18 19 20 22 21 20 19 19 19 20 21 20 20 21 23 24 24 25 26 27
15 12 17 13 10 10 16 9 19 14 17 14 12 17 15 12 3 3 8 9 10 9 11 11 12 13 13 12 13 13 12 12 11 10 12 16 18 17 17 20 23 22 23 27 27 24 31 32 35
20 16 13 12 13 16 17 6 16 15 26 21 17 18 19 16 8 3 5 8 10 12 13 13 13 12 13 12 12 13 13 11 12 12 13 14 15 16 16 18 22 24 25 28 31 30 25 35 37
17 18 16 15 13 11 23 10 14 14 22 21 22 22 20 18 12 7 6 10 11 12 13 15 14 14 15 14 14 13 10 12 16 14 14 14 17 17 18 21 22 23 23 31 32 32 32 40 39
19 18 3 5 3 7 10 11 22 21 11 13 26 17 17 20 18 12 11 12 15 16 15 15 14 12 12 13 10 11 12 15 15 19 15 17 18 20 20 20 19 22 23 25 30 33 35 42 44
23 23 11 6 2 4 13 6 10 9 9 12 7 6 21 14 17 16 17 16 13 17 18 19 17 14 16 15 14 14 15 17 19 19 21 19 19 16 18 23 23 24 28 30 34 33 37 43 40
22 23 25 4 3 4 12 13 5 11 9 6 6 7 9 14 14 18 20 22 21 19 16 19 20 18 20 21 20 19 23 20 21 22 22 20 21 19 20 19 25 28 29 30 27 30 32 35 40
32 17 22 23 7 5 8 12 8 19 6 6 8 11 12 14 11 14 19 24 26 26 21 16 13 20 23 25 25 25 25 27 25 26 28 25 23 22 23 26 27 27 27 25 28 26 28 29 31
29 29 23 14 14 6 2 5 3 7 9 7 10 13 13 18 16 18 21 19 25 28 25 22 21 20 23 24 30 31 31 32 32 34 35 27 27 25 28 29 28 28 28 30 30 27 31 27 31
36 33 29 20 12 12 17 8 12 5 8 6 12 14 11 12 11 11 9 22 18 26 30 28 27 28 28 23 25 30 33 38 37 35 38 26 24 29 31 30 30 30 30 30 35 31 30 26 31

GFSSGP_700_spd_078.txt.gz
Wind_Speed
9 8 7 7 3 5 9 10 22 15 3 7 10 14 17 19 17 13 9 5 7 9 15 18 23 34 34 35 35 35 32 28 23 19 17 17 19 21 20 19 18 16 15 15 15 14 12 11 11
7 5 2 4 5 8 11 14 16 14 14 14 17 22 22 28 28 24 23 16 7 7 16 27 27 33 37 36 35 33 31 27 24 21 18 18 20 21 21 19 17 17 17 17 15 13 12 12 13
5 1 2 4 7 11 14 26 22 12 15 19 24 29 31 24 25 28 24 14 12 9 14 21 19 30 37 32 36 34 32 28 24 21 20 21 22 23 21 19 18 19 18 16 15 14 13 12 12
4 5 7 7 15 19 27 27 10 10 19 24 27 17 22 21 22 26 23 20 19 15 15 21 26 18 34 40 40 37 33 29 25 23 23 23 24 23 22 21 21 20 18 17 16 13 9 9 11
5 3 5 11 19 24 27 11 8 17 19 21 21 20 20 21 28 19 20 21 21 18 18 18 29 35 46 47 43 41 36 31 28 26 26 25 24 23 22 23 23 21 19 17 14 10 7 7 10
9 7 9 16 19 19 6 11 13 14 17 21 24 20 21 23 20 17 12 19 24 17 19 23 32 31 32 40 42 45 39 34 30 26 28 27 26 25 25 24 23 21 19 17 14 11 6 3 8
7 6 11 16 16 22 19 9 10 13 20 25 25 25 32 12 16 16 11 15 16 25 15 12 15 33 12 63 55 46 47 36 31 28 29 28 28 27 27 25 23 22 20 17 13 12 8 2 7
2 9 8 9 17 20 18 12 13 19 19 23 22 25 24 9 13 8 3 10 15 13 12 5 11 28 15 51 57 51 41 36 32 32 31 29 29 29 28 26 24 23 20 16 12 9 5 2 4
8 14 14 15 19 24 15 15 19 16 19 22 21 23 26 22 14 9 10 12 10 10 4 10 7 13 17 45 44 53 46 35 34 34 33 33 32 32 29 27 25 21 18 14 9 6 4 3 2
12 17 13 17 19 14 14 18 19 14 18 18 20 21 23 23 19 16 8 11 12 12 9 14 10 3 8 21 42 40 43 35 34 35 33 34 33 32 30 26 23 20 17 14 10 6 3 1 2
12 18 19 24 25 22 25 28 21 17 19 18 14 20 23 24 20 22 15 10 15 14 14 13 10 5 2 4 14 33 39 35 35 35 34 34 34 33 27 23 18 17 18 13 9 5 2 1 3
16 18 18 24 20 22 24 23 21 18 21 23 26 25 26 20 21 23 23 16 15 13 12 13 11 8 5 5 7 20 24 36 33 35 33 33 33 29 25 22 20 20 16 12 9 5 2 1 4
18 19 21 21 18 17 21 25 21 21 19 21 27 31 29 19 18 24 25 13 13 13 11 14 11 12 6 9 10 19 20 31 45 35 37 37 34 29 27 24 25 18 14 11 7 4 1 2 4
18 22 19 20 19 22 23 24 21 25 25 24 32 22 9 11 15 23 11 6 9 11 12 12 13 13 11 9 17 14 12 31 30 33 41 36 31 29 27 28 25 17 13 9 8 4 2 2 4
21 24 23 25 22 16 20 25 17 17 17 25 15 4 1 10 10 23 13 4 10 6 12 11 9 11 13 11 14 18 18 37 29 41 41 38 35 30 28 31 24 16 14 11 8 5 4 4 6
23 20 23 9 13 19 19 16 13 17 11 18 15 8 5 8 8 16 17 5 10 16 12 8 10 9 9 22 5 15 30 37 33 44 39 40 44 31 32 27 19 18 17 13 9 8 6 7 9
16 22 14 18 15 10 10 12 12 14 15 10 9 8 7 8 9 11 18 4 7 11 11 17 16 13 9 25 23 27 38 28 28 31 38 44 32 32 27 25 23 19 15 11 11 11 9 10 11
17 16 17 22 24 11 13 13 15 10 6 12 10 8 8 7 7 10 15 16 10 12 12 16 20 18 18 24 20 23 19 21 28 25 24 36 33 35 30 26 20 18 15 14 13 12 13 14 14
13 18 24 23 13 14 11 10 7 11 8 13 10 9 10 9 8 4 7 12 17 12 12 10 12 19 24 25 22 23 21 28 25 29 41 39 39 35 32 26 24 19 16 15 15 15 15 16 17
20 23 25 26 15 13 13 14 10 12 11 14 8 10 7 8 6 2 5 5 13 17 24 25 25 25 24 21 22 21 22 26 31 34 37 39 38 36 31 27 24 20 19 18 17 18 18 19 21
21 24 25 21 14 14 10 15 14 13 14 14 10 6 3 6 4 2 4 7 8 10 12 16 17 17 20 23 24 26 27 27 28 29 33 35 34 32 25 22 22 20 20 20 20 21 22 22 23
24 11 19 12 15 8 11 9 19 19 16 19 15 12 2 4 1 2 2 5 8 9 10 10 11 13 15 16 18 17 16 18 20 23 25 27 26 24 22 21 21 20 20 19 21 23 24 25 26
25 19 21 15 13 16 18 10 24 17 18 25 23 17 8 2 4 4 4 6 6 7 9 10 10 12 13 14 14 14 13 13 14 17 19 20 21 22 20 20 19 17 17 18 20 25 24 26 33
17 18 18 17 10 7 22 13 20 17 20 23 22 21 16 10 7 6 10 11 10 11 12 13 13 13 11 11 12 13 13 13 14 14 14 16 16 16 17 19 19 20 19 17 21 21 25 25 27
23 22 5 5 3 6 3 6 22 15 18 20 21 22 18 15 15 12 12 11 11 12 13 14 14 13 11 11 13 14 14 15 15 17 15 16 16 16 18 21 23 23 19 22 23 24 25 28 29
26 26 13 5 4 4 7 8 6 16 16 22 21 19 20 17 13 17 13 10 11 14 14 15 15 16 15 14 12 12 16 16 15 16 16 18 20 21 20 23 18 20 21 21 21 24 27 28 26
29 28 27 20 5 2 5 12 8 7 11 12 12 12 16 22 19 15 13 13 13 13 14 15 18 17 18 17 16 16 17 18 18 19 20 21 22 24 25 24 24 23 24 22 22 24 26 22 23
26 26 19 13 7 4 7 10 11 12 14 11 10 9 11 12 15 17 19 18 17 18 16 16 13 17 18 21 21 22 21 23 23 24 27 29 28 32 29 28 28 27 26 25 25 26 26 21 29
32 34 20 23 21 6 2 7 9 13 22 14 10 10 11 11 12 12 16 20 22 21 23 22 19 16 18 18 19 22 23 25 28 31 32 34 38 38 39 32 23 29 28 26 28 27 26 28 29
33 37 35 22 10 13 17 23 7 9 8 10 10 9 13 15 13 13 12 11 16 22 21 25 25 24 21 19 18 22 26 27 27 30 34 36 45 33 21 15 26 26 25 28 30 28 29 31 31

GFSSGP_700_spd_081.txt.gz
Wind_Speed
9 8 8 5 2 2 5 7 15 18 9 11 13 16 17 22 20 12 13 15 12 6 15 23 29 31 27 24 26 30 31 30 30 29 27 22 19 17 17 16 15 13 11 11 12 14 14 10 8
7 5 4 2 2 4 8 9 23 16 14 11 14 17 21 23 27 30 21 21 22 19 16 19 23 25 26 22 31 33 31 34 33 30 27 21 20 19 18 16 15 13 12 12 13 14 13 9 9
5 3 3 2 3 7 15 23 20 12 12 11 15 21 22 24 25 24 25 21 18 18 18 24 24 29 32 31 31 40 37 35 31 26 24 21 21 21 19 18 17 16 16 15 14 15 15 12 9
4 4 3 4 8 14 18 17 7 8 10 13 17 21 28 27 24 21 18 23 24 18 20 24 28 36 32 37 25 41 39 35 31 29 23 25 25 23 22 20 18 18 17 15 16 17 14 11 8
6 3 3 6 11 14 15 8 6 7 9 14 20 23 25 22 25 18 22 19 23 18 20 26 35 41 39 37 36 40 42 37 32 27 28 29 27 26 23 22 21 20 18 16 16 15 13 10 8
8 5 6 8 8 10 16 13 10 9 12 17 17 20 20 23 21 18 18 13 14 18 20 23 32 41 39 32 42 46 47 39 36 29 31 31 29 26 25 23 22 20 18 17 16 14 12 10 7
6 5 7 7 9 15 22 7 11 11 16 16 16 20 20 22 17 21 17 13 9 16 21 21 29 37 44 33 49 56 49 44 36 32 34 32 31 28 27 25 23 21 19 16 13 13 12 9 8
6 7 9 8 12 17 17 10 13 17 14 14 17 17 19 16 17 17 12 12 15 12 19 23 25 44 46 44 32 43 44 41 40 34 35 33 31 29 28 28 25 22 19 15 14 12 9 7 7
8 9 9 10 17 23 17 12 21 21 16 19 19 18 16 18 19 16 16 12 18 14 9 11 9 8 25 43 39 38 56 39 43 35 37 35 35 33 32 29 26 23 20 15 8 7 5 3 5
12 11 8 14 21 27 22 17 24 25 25 25 21 24 25 20 20 15 14 10 11 13 14 12 8 2 7 15 50 65 50 46 40 41 40 37 37 35 33 30 28 25 18 14 10 9 4 3 3
14 13 12 14 21 21 17 16 26 30 30 27 27 27 25 32 23 20 18 15 14 13 13 10 9 2 11 40 49 54 57 50 44 41 39 38 39 37 34 31 26 22 19 14 12 6 5 3 3
18 14 15 17 17 17 16 20 25 29 31 28 28 26 27 31 29 26 20 24 14 11 12 10 10 5 3 10 44 43 43 43 40 40 39 40 38 36 32 28 24 21 16 13 10 8 4 2 3
17 18 19 17 18 17 19 24 28 29 29 28 27 29 32 21 16 15 23 17 8 11 11 9 10 11 8 6 16 38 33 45 46 42 41 38 37 33 29 26 23 18 15 13 12 7 4 3 3
18 21 21 23 21 20 23 26 25 21 24 20 25 21 18 9 12 15 22 6 13 14 13 12 12 13 7 9 14 17 13 44 50 48 39 38 34 32 28 25 21 19 20 17 12 7 5 5 4
19 22 19 15 19 22 23 25 19 13 19 16 18 15 7 10 13 15 17 4 11 13 16 8 14 14 16 10 12 17 18 31 32 29 45 39 34 32 25 26 24 22 20 17 12 9 7 5 5
19 18 18 5 8 16 21 20 11 13 15 16 15 11 11 11 12 14 15 3 14 16 12 11 15 13 19 13 15 19 21 31 37 33 34 38 36 30 28 27 25 26 18 18 13 11 9 7 7
19 16 14 11 13 18 18 17 14 14 14 13 12 13 13 13 12 12 14 8 18 18 19 18 20 18 17 18 23 17 23 27 41 35 41 42 38 33 33 29 27 29 23 17 16 14 11 10 9
16 16 12 12 9 19 17 19 11 15 16 14 12 12 15 14 9 9 13 10 13 17 19 19 19 17 15 18 27 14 30 41 45 29 40 39 38 39 42 31 29 28 21 20 19 15 14 13 11
18 14 16 11 9 24 16 15 14 11 15 15 11 12 10 9 8 5 9 17 10 16 13 18 20 16 20 18 32 15 26 37 30 23 41 42 43 42 35 32 30 23 22 20 19 19 17 14 14
21 21 18 14 9 18 16 17 17 14 16 11 8 10 10 7 7 7 5 13 23 21 17 13 19 20 22 19 20 16 20 19 23 30 39 23 34 38 37 32 25 24 25 22 22 21 17 18 18
26 23 14 18 18 12 11 13 16 15 18 15 13 10 4 7 6 5 3 8 10 16 19 22 21 22 23 23 23 23 22 22 24 27 30 31 38 40 36 32 27 28 27 25 23 22 21 21 22
28 20 19 19 17 12 11 9 18 22 18 15 14 12 8 4 6 4 6 5 4 6 8 11 15 20 23 24 24 23 24 24 24 24 28 35 36 37 35 34 31 28 30 26 23 23 22 23 23
29 17 16 18 26 17 15 14 27 17 16 16 17 16 11 3 3 3 2 2 4 4 4 5 8 12 14 17 18 16 15 18 20 21 23 27 30 31 30 31 29 31 28 26 25 24 23 23 27
19 18 17 20 17 10 16 11 24 17 19 16 12 13 11 8 3 3 6 6 4 6 6 8 8 8 9 11 13 13 15 16 17 19 19 21 24 24 26 28 31 28 27 24 23 26 26 24 25
27 24 4 5 4 8 13 11 26 18 12 13 9 7 10 10 11 8 6 6 6 6 7 9 9 7 7 7 8 9 10 11 13 15 15 18 19 20 20 23 25 25 25 24 26 28 27 27 26
31 26 11 6 4 6 9 8 17 10 13 16 15 11 10 13 12 12 9 7 7 7 9 10 11 10 10 10 9 9 12 11 13 15 17 19 19 19 21 23 24 25 26 26 30 29 27 26 26
32 27 29 28 4 3 9 14 19 18 13 14 16 13 12 11 17 14 12 12 12 12 10 11 14 14 13 12 13 14 15 16 16 17 19 19 20 22 24 26 28 32 35 35 32 33 30 28 28
39 26 18 16 7 5 5 12 12 10 12 14 16 13 7 5 10 15 15 13 14 15 15 14 16 19 19 19 19 17 18 19 19 21 23 23 25 26 28 30 34 37 39 43 32 35 31 27 31
38 36 28 25 24 6 2 10 20 12 16 14 13 10 7 8 7 9 9 8 13 20 22 20 18 17 22 22 17 20 21 24 25 27 29 30 32 32 40 37 38 47 44 40 35 35 24 27 32
33 41 37 24 8 17 24 23 13 6 16 24 13 10 9 10 7 7 9 5 9 6 11 17 18 22 23 18 20 22 19 22 21 26 28 30 31 33 37 34 20 15 14 21 21 21 28 34 32

GFSSGP_700_spd_084.txt.gz
Wind_Speed
10 8 7 3 2 4 7 8 14 16 12 9 13 11 16 19 17 13 14 15 15 17 13 24 29 28 27 25 20 19 16 21 17 11 22 20 21 18 15 12 12 11 9 10 11 11 11 11 9
8 6 4 1 2 6 9 14 16 12 11 9 11 16 19 21 24 24 26 18 16 20 21 21 26 29 31 28 22 24 19 25 23 16 22 26 21 20 18 16 15 13 12 13 13 12 12 11 9
7 4 2 1 3 7 10 15 13 7 8 11 12 15 18 21 24 25 24 18 15 19 20 26 30 32 35 30 29 28 22 24 30 24 20 24 22 20 19 19 15 13 12 14 14 12 12 11 11
7 3 3 2 3 7 11 9 6 6 7 9 12 14 20 23 20 24 24 23 15 18 22 26 34 37 36 33 32 26 24 31 29 29 24 24 23 21 22 20 18 17 16 16 14 12 12 10 8
6 3 3 4 2 7 12 11 8 9 9 11 14 15 20 24 23 21 16 19 18 14 24 27 30 40 36 37 36 25 24 34 31 30 29 27 23 25 23 21 19 17 17 16 16 13 11 9 7
7 5 6 7 3 8 13 9 4 9 10 13 15 17 22 22 18 17 18 20 15 19 22 27 28 32 40 39 41 29 33 38 37 37 30 27 27 25 24 22 20 19 19 18 16 13 10 8 7
7 7 8 9 7 7 12 12 9 10 15 15 17 19 20 23 20 20 17 13 8 11 16 22 28 39 52 53 33 32 42 41 40 37 37 30 27 28 25 24 23 21 19 18 16 13 10 7 6
8 9 10 11 9 12 15 16 14 15 16 16 18 21 24 21 20 21 20 13 11 13 13 20 25 29 42 50 47 39 45 43 42 35 33 29 31 29 28 28 25 22 21 18 15 14 12 7 6
11 11 11 11 10 20 14 20 18 18 19 17 24 23 23 19 18 27 21 16 15 16 11 10 11 10 40 40 39 40 42 48 51 39 33 31 33 32 32 28 25 23 20 19 17 14 8 5 6
14 12 12 7 14 17 15 19 18 21 22 25 28 23 19 20 25 29 21 21 17 16 11 14 8 7 7 20 40 50 47 55 52 36 36 39 38 35 34 30 27 23 21 19 15 11 8 6 5
16 14 11 14 15 17 16 15 20 23 28 26 26 24 22 25 27 22 23 22 22 25 13 11 10 14 15 13 34 46 42 49 43 44 37 39 39 38 35 32 27 22 19 16 12 8 5 5 4
21 18 18 21 18 18 17 21 24 26 28 30 30 27 23 25 19 18 17 21 28 18 11 7 8 12 6 13 33 49 50 53 49 43 42 42 39 40 36 29 25 21 18 13 10 7 6 5 4
22 20 24 26 24 21 22 24 28 27 26 25 25 22 22 18 12 13 15 23 18 11 10 7 7 7 3 7 5 65 49 62 47 44 43 41 41 38 33 28 24 19 16 13 8 5 6 6 4
22 21 26 27 26 25 28 27 30 17 16 20 19 20 16 11 13 12 17 21 10 9 9 8 7 7 2 1 12 46 49 48 42 42 40 39 40 37 32 28 23 20 16 11 6 8 8 4 3
21 24 27 26 20 14 14 20 20 16 14 17 16 16 12 12 14 13 16 15 15 13 13 11 11 11 11 10 32 28 27 42 44 46 44 43 39 34 30 27 24 20 15 11 10 12 10 5 4
19 20 22 7 4 10 16 23 11 14 14 13 13 14 15 14 15 14 16 10 12 16 15 10 13 16 16 14 17 23 23 34 46 47 47 39 35 35 32 27 22 18 18 13 14 15 11 8 6
22 21 19 14 11 11 16 20 13 16 16 15 14 14 14 16 16 14 16 10 17 15 17 11 12 12 14 14 15 17 19 29 44 42 44 50 43 38 28 26 27 22 19 17 17 16 12 12 10
21 19 20 19 12 12 16 19 12 15 16 15 12 11 12 14 14 10 15 13 20 21 16 17 13 11 16 11 11 12 16 31 36 40 41 44 50 41 32 30 28 25 22 20 17 17 14 15 14
20 13 14 17 15 17 16 19 15 19 18 11 7 7 9 11 12 9 13 16 10 21 20 17 19 18 16 13 18 17 19 27 33 35 38 34 26 30 34 33 27 30 26 18 20 18 18 17 16
27 24 21 17 14 14 16 18 15 17 18 14 9 7 7 7 8 7 7 15 7 19 16 17 20 24 17 24 12 24 19 31 34 36 38 38 37 36 34 32 33 28 25 25 21 19 19 19 21
30 31 23 19 15 17 14 21 18 20 21 21 18 9 3 2 6 6 4 8 11 12 8 11 20 21 17 23 19 29 19 31 34 33 33 41 40 40 36 36 34 32 30 26 21 22 21 22 25
33 30 22 22 21 12 13 11 27 24 26 24 20 12 8 3 2 3 3 4 8 8 11 12 12 14 22 24 22 22 18 19 20 21 32 32 36 38 37 39 37 33 31 26 23 25 26 27 27
35 29 24 19 18 22 25 11 24 29 29 18 12 9 9 6 3 1 1 2 5 7 7 10 13 15 16 16 18 20 19 20 20 23 30 31 39 32 39 38 36 34 31 27 27 29 31 29 29
17 22 19 18 18 8 21 14 24 11 9 8 13 11 12 11 8 3 2 2 3 5 8 10 11 12 13 14 15 16 15 16 17 17 19 23 26 29 29 30 30 29 30 28 29 33 32 31 35
31 24 3 3 4 5 8 14 28 20 20 17 10 5 13 14 10 8 1 2 0 0 4 6 9 11 11 12 13 13 15 17 17 18 19 21 23 24 25 27 29 31 31 33 33 35 35 34 35
27 33 12 6 4 4 12 9 13 14 10 12 12 9 12 15 13 11 8 3 1 1 2 4 6 8 9 10 11 12 14 15 16 18 18 18 19 20 22 24 27 30 34 38 40 38 39 34 35
19 32 32 17 1 1 7 12 18 15 16 15 14 15 15 15 16 13 12 8 7 5 3 5 8 10 11 11 12 12 13 15 16 17 18 18 20 22 25 28 31 35 37 38 39 41 38 39 37
39 16 15 18 5 5 5 11 13 5 11 11 10 13 11 9 12 18 16 12 10 11 10 9 10 13 14 14 14 15 16 15 15 19 20 21 23 25 27 29 30 31 31 36 45 46 47 47 41
29 37 28 15 21 6 2 7 18 19 12 12 12 11 11 7 5 10 14 12 13 15 18 17 14 13 15 18 20 19 20 20 21 22 24 25 26 28 30 30 30 35 35 32 41 49 47 53 34
15 30 40 30 7 13 23 22 17 11 9 8 18 14 12 8 8 7 8 9 6 9 7 11 18 20 18 17 15 17 23 21 23 27 25 29 31 33 34 35 38 39 31 17 23 25 39 34 24

GFSSGP_700_spd_087.txt.gz
Wind_Speed
8 6 5 1 3 5 3 3 7 7 6 6 7 9 12 12 12 13 18 18 17 14 13 25 25 32 27 26 23 20 18 18 19 15 14 23 25 17 12 9 8 10 10 10 11 12 12 12 11
7 5 3 2 4 2 3 9 9 5 5 6 8 11 12 15 19 21 20 22 17 17 19 23 31 24 29 30 28 23 19 18 20 12 11 27 22 19 13 9 9 10 10 12 14 14 13 11 10
5 3 3 4 2 2 4 7 6 4 2 6 10 11 14 18 24 21 22 25 18 16 20 26 32 34 33 33 33 27 25 23 25 21 14 19 18 18 15 11 13 13 14 14 15 13 11 11 9
5 3 4 5 3 2 6 4 4 4 6 8 10 15 18 20 24 22 20 21 16 15 18 26 34 42 39 42 37 31 28 26 30 26 23 18 29 18 17 14 16 14 15 14 12 11 10 10 8
6 4 6 7 5 3 4 5 4 4 6 9 14 19 21 21 19 20 18 19 20 23 14 17 28 29 38 46 43 36 29 29 27 27 24 21 24 20 17 17 17 16 16 15 13 12 10 9 7
7 6 7 9 9 0 4 4 4 6 7 12 19 21 22 19 20 18 18 18 19 19 16 20 31 38 35 41 44 38 34 30 22 26 25 23 19 21 16 19 17 17 18 16 14 11 9 7 5
9 8 10 10 12 5 6 7 8 8 11 15 21 24 23 19 21 20 20 23 18 15 16 18 18 19 27 41 40 38 35 28 25 26 28 27 22 22 20 21 21 22 19 17 14 11 10 8 6
11 10 11 10 10 9 8 9 11 15 17 17 20 23 23 22 21 20 22 22 18 17 16 11 17 25 26 30 36 42 37 30 28 30 30 29 28 20 23 24 24 23 22 17 15 13 10 8 5
14 12 13 12 10 10 10 13 14 15 18 19 25 23 23 22 22 23 22 22 19 17 18 11 14 21 27 28 35 33 40 39 38 34 34 32 28 25 26 26 26 24 21 19 16 13 8 6 4
18 15 11 14 10 11 10 15 17 19 20 22 24 23 21 24 24 25 30 22 17 15 18 19 13 10 12 20 36 41 39 43 39 38 38 32 30 27 30 28 27 24 22 18 14 10 7 6 4
21 19 11 13 14 16 15 17 18 21 22 23 25 24 23 21 22 26 20 16 14 17 19 23 19 15 17 8 21 43 34 43 42 45 41 37 32 33 32 30 29 27 23 17 13 9 7 6 3
24 21 17 17 19 20 20 22 23 24 22 23 21 21 20 21 21 18 17 15 20 25 15 17 18 16 21 13 12 33 47 41 48 46 41 40 34 34 32 31 28 26 22 17 13 10 6 3 3
27 25 22 23 22 23 23 25 27 20 24 18 20 17 17 18 17 20 21 19 22 11 9 13 8 10 12 11 19 28 43 53 47 47 45 40 34 33 32 31 28 25 20 17 12 6 4 3 6
25 22 22 24 22 23 26 28 27 17 16 15 17 15 14 14 17 19 19 20 22 8 8 8 6 10 7 9 16 28 40 50 49 47 50 36 33 35 34 31 28 24 20 17 13 11 9 6 6
24 27 25 24 20 21 17 18 17 19 14 15 15 14 15 15 17 19 18 20 18 9 11 4 9 14 5 10 1 38 53 46 43 44 42 37 37 34 33 30 27 24 22 18 14 8 10 7 7
19 22 24 14 10 6 10 21 15 11 12 16 17 17 15 16 17 17 15 20 12 14 7 13 11 7 8 6 20 34 34 50 44 35 43 42 39 35 32 27 25 25 21 17 12 13 10 7 7
23 22 20 17 12 13 11 18 13 10 11 15 17 16 13 14 15 14 15 20 11 15 19 10 12 13 11 22 22 31 29 39 47 40 45 42 39 36 29 27 24 24 18 15 15 15 11 10 11
24 25 24 22 14 15 13 18 14 13 12 14 14 10 11 11 12 12 13 21 6 14 17 11 12 13 8 16 21 18 18 30 40 44 48 48 43 38 36 35 27 19 20 19 17 18 13 13 13
19 19 19 17 14 21 19 20 17 15 13 13 12 8 10 9 11 12 12 20 4 16 13 12 12 11 17 11 13 13 13 24 33 40 47 47 43 40 42 36 31 28 24 20 19 17 15 15 15
27 26 29 24 19 18 18 21 20 17 12 9 10 10 9 7 7 9 9 14 8 15 12 11 17 12 14 14 13 15 18 22 35 34 38 48 55 51 44 42 29 29 28 25 19 19 17 18 18
30 31 30 26 20 19 23 24 18 17 18 16 14 13 11 4 3 5 7 9 10 4 11 13 13 19 19 16 16 14 19 22 30 36 36 40 39 42 42 39 30 29 32 30 21 21 22 21 22
32 31 28 26 21 11 12 13 20 24 18 15 15 12 13 7 2 1 2 4 6 6 7 2 13 15 20 19 22 17 17 15 22 31 33 37 31 30 35 33 33 33 31 27 26 27 27 25 25
24 21 25 25 22 18 17 14 14 12 24 3 8 6 14 12 5 3 1 0 4 6 8 10 8 9 19 19 21 21 25 18 18 20 29 29 25 38 35 35 34 34 35 31 30 29 31 27 28
19 14 8 13 14 10 18 18 15 13 6 8 3 10 12 15 9 5 3 2 2 5 7 10 11 11 11 11 13 17 19 17 21 24 25 25 28 33 35 37 36 34 40 38 34 35 34 31 32
20 13 5 4 5 8 11 14 28 19 16 16 1 4 14 21 16 9 6 5 5 5 6 7 11 12 13 13 14 15 16 16 18 19 19 24 27 31 33 30 31 36 37 37 36 41 37 35 37
21 31 8 6 6 7 16 10 16 13 9 6 5 7 11 21 19 15 10 8 8 7 7 8 8 10 12 12 12 13 15 15 15 16 16 18 20 21 24 27 32 35 38 39 40 43 40 40 40
21 22 28 14 1 2 7 14 21 16 19 14 10 9 14 16 17 16 16 12 9 9 9 9 10 11 11 12 12 12 12 13 15 16 17 19 20 21 25 28 31 34 35 39 42 43 43 45 45
25 12 11 19 7 11 7 13 14 3 10 8 12 9 17 16 17 20 19 17 14 12 11 11 11 11 13 14 13 12 11 11 13 15 16 18 19 23 26 29 32 36 39 43 45 47 46 46 45
20 27 15 8 18 8 5 8 18 17 12 13 12 9 15 14 10 12 21 20 18 17 16 15 13 13 16 16 17 17 16 16 16 17 19 21 22 24 28 31 33 36 40 47 50 47 43 35 39
8 11 26 24 12 10 19 22 9 8 5 10 12 12 13 11 10 10 12 16 15 15 16 17 19 20 18 17 19 20 20 21 23 22 22 23 24 27 29 32 35 38 41 38 47 34 21 28 32

GFSSGP_700_spd_090.txt.gz
Wind_Speed
7 5 4 1 1 3 4 5 6 6 5 6 5 6 8 8 8 12 22 17 16 15 15 18 25 35 33 27 23 26 22 19 16 18 14 17 8 10 9 5 5 10 11 11 12 12 11 11 11
6 4 3 2 4 8 4 5 4 7 8 6 6 8 9 11 15 21 21 18 20 18 16 19 25 34 38 24 28 28 26 20 21 19 17 16 13 14 18 10 9 12 11 10 10 11 12 12 11
4 3 2 4 6 8 6 6 6 4 4 5 8 8 12 13 18 21 21 21 18 16 14 19 25 34 39 24 35 33 30 24 23 19 17 14 11 14 13 11 10 12 10 10 11 12 11 10 10
4 4 6 7 9 8 8 6 6 6 6 6 8 13 17 17 22 20 21 18 17 18 15 17 25 38 43 34 40 47 35 27 24 24 18 14 14 13 13 10 10 12 12 11 12 11 11 11 11
6 6 9 10 11 9 7 7 10 7 8 10 11 12 18 20 19 18 22 19 19 20 21 22 23 32 37 33 40 36 34 31 25 28 21 18 17 19 14 12 11 14 12 13 13 13 12 11 9
7 8 10 11 10 11 8 7 8 9 10 12 14 18 19 22 21 20 21 20 21 20 21 19 22 25 33 39 49 48 42 36 28 29 25 19 15 17 15 12 13 16 15 16 15 14 11 9 8
9 10 13 13 12 14 10 10 9 11 12 14 17 19 18 21 20 21 23 22 22 22 20 20 24 30 34 40 57 43 42 37 33 32 27 21 20 19 14 11 16 16 18 17 16 14 11 9 8
12 10 14 12 12 16 12 11 11 12 13 15 17 18 18 22 23 22 27 25 23 23 21 20 22 27 21 15 31 34 46 38 36 33 28 25 24 16 12 16 18 19 18 18 16 13 12 10 8
14 12 15 14 14 13 13 14 14 17 18 19 21 21 22 21 21 22 28 28 25 26 24 19 21 17 10 8 27 31 46 44 40 34 29 28 25 23 17 20 18 21 20 18 16 14 10 8 8
16 14 14 14 14 13 14 14 15 20 17 19 22 26 22 21 19 20 22 24 26 23 24 18 21 19 12 11 19 31 26 47 43 37 33 32 26 22 23 23 21 22 21 20 17 13 10 9 6
15 21 13 16 14 16 18 18 18 19 19 15 23 23 20 21 21 19 18 16 15 15 19 20 23 19 15 6 6 25 40 37 44 43 39 35 31 28 25 26 27 26 25 22 17 14 12 9 6
20 19 18 18 18 21 24 20 22 20 21 22 20 19 19 20 18 16 16 18 17 20 24 22 21 22 19 15 13 6 36 43 48 41 44 39 34 31 27 27 29 29 25 20 17 15 12 8 6
23 19 19 20 24 26 26 25 24 22 21 21 16 17 18 19 19 18 18 18 16 21 19 11 13 16 17 25 19 9 25 37 49 46 45 41 35 33 29 27 31 29 26 22 19 14 11 9 6
14 19 21 20 21 22 25 25 24 13 18 16 15 16 17 19 20 19 19 17 17 23 13 10 12 11 12 19 18 17 17 38 41 49 45 41 36 32 29 31 33 30 27 22 17 14 11 7 4
25 25 20 21 21 20 19 24 20 13 15 13 15 16 17 19 20 21 20 18 18 20 10 15 12 11 15 18 20 29 28 50 43 42 44 42 35 33 30 31 33 31 27 23 19 13 10 6 6
18 17 17 12 8 12 11 15 9 14 14 15 16 16 15 16 20 20 18 19 20 12 11 14 8 10 14 16 13 17 30 46 54 47 43 45 35 34 33 35 33 31 27 23 18 12 7 8 7
20 20 16 14 12 12 17 17 11 15 12 13 15 15 14 14 16 17 18 22 24 10 15 13 12 8 6 9 7 3 32 37 48 53 47 46 40 37 33 35 33 30 27 22 18 13 8 11 9
21 21 17 17 11 12 18 23 20 15 17 14 15 13 14 14 15 15 16 22 24 9 16 12 9 10 6 6 9 21 29 32 45 44 43 47 44 40 37 33 32 30 27 22 18 15 15 15 13
19 17 19 14 10 13 19 23 23 18 17 16 15 12 13 12 14 12 13 17 14 10 12 17 8 12 6 13 19 18 27 29 34 40 40 39 45 44 43 36 36 35 32 24 20 18 19 17 15
24 21 24 19 16 16 18 22 23 22 21 17 14 10 13 14 12 10 10 12 12 3 10 9 9 12 12 9 15 13 10 23 29 40 38 43 49 52 49 46 39 35 31 29 25 22 19 21 17
25 26 25 20 13 17 20 25 25 22 22 22 24 19 15 12 11 8 7 7 8 6 5 7 10 13 11 16 15 17 18 18 27 32 33 42 44 48 47 37 36 37 32 28 23 23 20 21 20
27 23 22 22 17 15 7 13 15 15 19 20 18 20 16 14 12 6 5 4 4 5 4 2 10 14 15 15 16 15 13 18 20 25 30 30 34 42 43 45 40 36 38 32 28 24 23 23 23
21 17 17 16 20 21 20 14 13 10 12 12 11 21 19 17 13 8 3 3 2 2 5 6 4 11 18 21 21 17 15 19 17 20 27 30 39 45 45 48 45 45 40 31 31 31 30 28 27
8 12 7 9 13 16 22 18 12 12 7 6 5 11 12 19 15 10 6 3 1 2 4 5 8 10 12 14 15 18 21 22 17 20 28 28 29 31 31 37 45 44 36 35 32 33 33 33 30
19 13 6 8 8 9 10 16 24 8 6 11 11 9 16 17 20 13 9 7 5 4 5 6 7 8 11 13 12 13 15 23 19 20 23 27 30 31 30 31 35 38 38 37 36 38 39 38 36
20 24 10 9 8 7 15 10 17 9 9 7 10 8 12 16 23 17 11 10 9 7 6 7 9 10 9 10 13 14 16 16 19 20 22 23 26 28 27 36 37 35 36 37 38 39 42 42 43
15 24 23 19 17 10 15 12 17 19 14 11 11 14 12 12 18 17 14 9 10 9 8 8 7 9 11 11 10 10 12 14 14 17 19 18 19 22 23 26 26 29 32 35 39 41 43 46 46
26 9 14 18 7 11 12 16 12 5 10 6 8 13 13 16 20 20 17 12 11 11 11 11 11 11 11 12 12 12 12 12 13 13 13 13 15 17 20 23 26 30 32 33 37 39 41 45 47
17 21 15 13 22 10 10 12 11 16 14 13 10 12 15 21 19 20 23 22 19 15 16 14 14 15 15 16 16 16 15 15 16 16 16 16 18 20 22 24 27 29 31 34 38 41 44 50 54
7 13 22 24 16 18 22 21 1 5 5 3 3 5 13 19 20 18 19 27 25 21 20 19 19 17 16 19 20 19 19 19 19 18 18 19 20 22 23 25 28 30 32 35 39 42 49 54 51

GFSSGP_700_spd_093.txt.gz
Wind_Speed
8 6 4 1 4 8 16 6 8 10 10 8 9 8 11 12 13 13 17 22 17 16 19 15 16 21 30 28 23 21 23 20 18 16 14 13 13 8 7 3 2 6 9 10 10 10 10 10 11
7 4 3 2 10 19 9 6 8 8 10 11 9 10 12 13 11 12 15 19 16 16 16 18 19 23 30 35 29 21 25 23 21 19 17 15 14 10 6 3 5 5 8 9 9 9 10 11 11
6 3 3 10 15 18 11 4 8 10 10 9 9 10 11 10 11 14 21 19 17 14 18 18 18 23 31 36 32 24 32 30 27 22 19 18 15 8 4 1 5 7 10 9 10 11 12 13 12
4 4 6 10 16 14 11 9 9 9 10 10 11 14 12 13 16 20 22 18 17 17 18 18 18 20 26 37 42 39 36 36 31 26 21 21 15 12 8 3 5 7 8 11 11 12 12 12 11
4 5 13 19 17 15 11 11 11 8 9 11 10 14 15 21 18 21 22 20 20 19 20 20 20 24 28 34 42 29 38 38 34 28 25 24 19 15 9 5 5 8 13 12 13 13 14 15 14
7 8 15 18 15 11 13 12 11 11 10 12 14 15 16 20 21 23 22 21 22 23 25 24 22 23 25 29 42 43 45 54 34 30 28 24 21 15 13 6 6 12 13 14 13 15 15 14 13
13 15 19 20 18 16 14 12 11 11 13 13 12 16 17 23 22 23 25 24 25 27 28 26 23 20 21 25 35 49 50 57 39 32 33 26 23 15 12 7 9 13 13 14 14 14 12 11 11
13 16 21 20 17 16 15 14 12 13 14 14 15 16 16 21 28 26 26 27 26 30 31 28 25 21 23 25 38 43 43 45 48 39 35 29 22 22 15 10 15 14 14 15 16 14 12 10 9
14 18 21 17 16 16 14 14 12 16 17 16 17 19 18 27 25 25 25 26 24 25 29 26 23 23 25 23 29 27 37 39 37 41 37 31 25 21 23 15 17 16 15 17 16 14 13 13 10
19 17 18 15 15 14 12 15 16 16 17 16 15 15 19 24 23 22 22 20 23 24 21 18 19 23 23 23 23 13 31 48 48 52 39 35 28 22 16 18 19 19 20 19 17 16 14 12 9
20 26 18 17 17 16 16 19 18 19 19 15 18 21 16 24 23 20 20 21 23 26 21 21 22 24 22 15 7 10 27 36 49 44 41 38 30 30 20 23 24 23 23 21 19 16 15 12 10
27 24 22 21 20 18 20 19 22 21 20 18 19 24 21 21 22 21 22 21 22 22 23 24 26 22 21 15 6 7 28 39 42 52 44 37 35 32 23 26 26 26 26 23 19 17 15 13 11
25 25 23 21 21 22 22 24 25 25 20 18 19 19 19 20 21 21 22 25 23 20 20 29 17 17 17 16 13 8 18 25 34 50 45 38 36 32 27 28 27 28 26 23 21 17 14 11 9
21 21 23 22 24 23 23 24 23 24 17 17 20 17 19 19 20 23 22 26 23 20 22 24 11 5 13 16 16 19 8 24 36 43 40 40 35 32 33 32 30 29 28 25 22 18 14 12 9
24 27 26 27 26 25 20 27 27 22 19 17 17 16 18 13 20 23 21 23 25 23 23 17 15 12 13 16 12 22 17 14 35 40 44 38 39 37 36 35 34 32 31 27 24 19 16 12 8
18 22 29 22 20 19 20 25 18 14 14 13 16 14 17 18 18 21 20 21 23 28 19 11 14 12 13 13 18 22 25 25 33 44 45 39 40 38 35 38 37 35 33 28 23 21 17 13 9
23 28 24 21 17 13 16 16 10 10 13 13 13 14 15 17 19 19 20 21 25 27 11 12 13 10 12 13 16 18 24 31 34 47 39 44 47 47 38 37 37 35 32 29 26 22 16 12 8
28 25 25 23 19 16 20 25 20 20 18 16 15 15 15 17 16 17 19 19 23 17 9 8 9 10 10 8 11 9 11 29 34 41 38 43 49 43 38 34 29 32 31 29 26 23 17 10 6
27 26 23 19 15 15 20 23 23 23 21 20 17 16 16 15 15 17 15 17 18 10 10 12 6 9 5 5 5 10 7 23 35 38 44 54 47 38 38 33 36 34 32 29 26 23 21 7 13
31 30 29 25 22 17 20 26 24 22 23 21 20 17 15 15 19 17 13 12 12 9 3 11 10 9 8 4 5 6 10 25 21 44 50 47 41 46 40 38 38 36 37 36 35 28 24 20 16
32 30 27 27 22 18 19 29 27 25 24 22 21 20 17 17 18 16 11 8 7 7 4 7 9 8 8 7 10 13 13 20 25 39 46 42 39 47 49 50 46 44 39 40 36 23 32 21 16
32 27 23 25 24 23 20 22 20 16 15 18 18 18 17 19 19 17 10 6 5 4 4 8 10 12 10 10 11 13 11 9 14 25 27 30 33 50 56 58 44 40 40 36 39 33 27 21 26
29 21 22 23 24 23 26 19 23 19 20 17 14 16 20 20 19 17 10 6 3 1 3 4 6 14 15 14 10 14 13 16 15 15 17 18 22 28 38 46 51 38 43 38 38 31 27 24 26
16 15 15 18 22 21 23 25 19 21 16 11 10 7 18 19 21 19 11 7 4 1 0 2 3 6 18 20 17 18 13 17 19 18 22 24 21 17 21 34 45 40 33 35 38 36 35 31 31
22 13 8 6 13 14 18 21 29 6 8 10 10 6 12 16 20 19 13 10 6 4 2 2 3 5 7 14 17 18 18 19 17 15 17 21 24 23 27 34 37 41 40 38 37 35 35 33 34
25 26 12 11 9 12 25 12 24 14 18 14 14 11 12 16 17 21 16 13 10 8 5 4 4 5 8 9 10 11 15 15 19 19 18 20 23 21 18 27 36 38 38 43 43 39 38 37 38
20 25 23 24 21 11 8 14 12 12 13 8 8 11 11 15 14 19 20 14 12 11 8 6 6 7 7 8 11 12 11 10 13 17 18 21 20 24 27 25 28 34 31 33 35 38 38 39 37
34 14 19 21 15 12 16 20 17 3 12 10 4 13 12 15 16 17 21 17 11 11 11 10 9 9 10 9 9 10 11 11 10 11 13 16 18 20 24 26 30 27 29 32 32 35 36 37 36
21 30 20 18 22 10 9 7 8 8 6 9 9 6 11 14 19 20 22 20 16 12 12 13 12 12 11 12 12 11 12 12 12 11 12 14 15 18 20 21 22 24 25 26 28 30 31 35 37
5 18 26 21 18 21 22 17 7 4 2 2 3 3 5 9 18 22 24 24 23 21 18 14 16 15 14 14 14 14 15 14 15 14 15 15 15 16 16 18 19 22 23 25 28 29 31 35 38

GFSSGP_700_spd_096.txt.gz
Wind_Speed
7 6 4 4 5 10 21 15 4 5 7 4 8 7 10 12 12 14 16 19 22 22 22 19 14 14 17 23 25 21 20 19 17 15 14 13 11 8 6 8 6 4 10 12 10 10 11 12 12
7 5 3 2 12 17 18 4 4 5 5 9 13 9 9 10 8 6 13 20 22 23 19 16 11 16 18 24 28 27 21 21 18 16 16 17 13 9 5 4 5 5 7 9 10 11 12 14 14
5 4 5 10 17 19 22 9 5 5 11 10 7 8 10 10 10 10 19 22 21 17 17 16 13 14 20 24 28 31 27 23 22 22 21 21 17 13 7 4 3 6 7 7 10 11 12 13 14
5 4 7 11 16 16 19 7 8 9 9 7 10 11 11 11 18 25 21 21 18 18 20 15 15 15 15 22 27 32 29 35 24 25 26 24 21 18 13 7 4 8 10 8 10 12 12 13 14
7 6 16 22 22 20 14 10 10 11 10 11 12 10 14 14 17 20 25 23 18 20 23 21 19 19 19 22 27 36 37 34 25 34 36 24 24 20 14 9 5 6 10 9 11 13 13 14 14
11 7 17 21 20 14 11 14 11 11 12 11 13 14 14 16 20 26 25 25 24 24 24 25 23 23 21 25 27 31 38 40 45 42 38 29 28 23 18 13 6 7 7 7 11 12 13 13 13
14 14 23 26 25 21 16 12 12 10 12 13 14 11 10 16 17 23 30 32 29 27 27 27 24 25 24 23 24 27 34 38 47 52 39 35 31 19 19 11 10 13 11 12 13 14 15 15 13
15 15 23 24 23 20 15 10 8 9 15 14 12 15 16 22 27 27 31 29 26 26 26 25 25 25 25 21 23 26 33 41 57 50 35 39 27 23 16 17 16 16 15 15 17 17 16 15 15
15 22 26 22 20 17 10 11 14 14 16 14 15 16 19 19 26 28 30 27 25 19 20 21 19 16 18 24 26 33 34 41 37 44 38 42 29 25 21 18 18 18 17 17 17 17 16 16 17
22 25 25 20 19 19 18 14 14 15 16 17 15 14 12 20 26 29 28 26 26 27 21 21 20 18 16 24 26 32 37 30 31 54 43 47 34 28 24 18 19 20 21 21 20 18 16 16 15
22 33 22 25 23 18 20 18 17 19 20 18 16 16 22 19 24 27 26 25 23 29 27 21 19 22 23 25 24 29 25 20 35 42 24 43 38 33 29 26 24 24 24 24 22 19 17 15 14
28 29 27 27 24 26 23 21 22 21 23 20 19 20 23 26 24 28 27 25 22 27 28 21 21 25 19 20 19 21 17 22 46 49 36 50 39 34 28 25 25 26 26 23 21 19 17 16 15
26 29 27 25 27 26 26 26 26 27 23 20 19 20 25 21 22 27 23 25 23 23 28 25 24 23 13 18 16 10 8 20 34 43 34 41 41 34 30 26 26 27 27 25 23 20 17 16 14
23 26 27 27 28 26 28 30 26 29 22 20 17 23 22 21 19 24 23 23 27 23 24 26 26 16 11 16 16 9 9 24 15 33 50 44 39 36 30 27 30 29 28 27 24 20 18 17 13
26 29 31 30 30 29 26 31 30 28 23 21 21 18 20 13 20 22 24 22 27 23 25 28 23 13 8 16 17 15 8 11 28 35 47 46 39 36 30 30 32 30 30 28 25 21 19 17 14
23 22 28 25 25 28 25 34 26 21 15 18 18 17 17 14 17 19 19 22 25 26 29 23 10 12 12 12 15 14 18 11 31 41 47 44 39 36 32 34 33 32 31 29 26 22 21 18 15
26 33 30 29 24 26 20 26 19 14 16 15 16 16 18 17 19 20 17 21 24 26 25 4 6 9 9 11 12 17 19 22 22 45 44 35 38 39 36 35 35 36 33 31 26 24 21 18 15
27 29 29 29 25 21 26 24 22 20 20 18 15 11 15 18 17 26 17 20 21 23 16 4 6 8 7 9 13 22 28 29 30 36 39 41 38 41 42 36 35 35 35 33 29 25 23 19 16
29 29 30 27 25 24 22 23 20 20 23 24 23 20 15 19 19 28 16 17 18 18 11 4 3 3 5 8 9 15 26 28 36 38 41 43 43 44 45 43 38 28 27 30 28 28 27 25 21
31 33 37 32 30 27 24 25 25 24 24 25 24 21 18 16 24 30 14 15 16 13 9 2 11 7 7 7 6 9 15 17 26 34 37 46 48 45 44 41 34 30 29 31 31 31 29 27 20
34 36 31 31 27 30 31 29 26 28 26 28 27 23 20 17 26 30 15 13 12 11 9 4 7 11 6 6 5 12 12 17 24 18 38 40 46 41 44 47 39 32 34 35 34 34 33 29 24
36 30 29 28 25 28 27 23 28 26 24 24 24 23 22 21 25 29 19 11 9 8 7 5 6 9 7 5 5 7 7 13 21 16 29 36 43 47 52 36 41 45 44 40 39 38 31 28 30
31 30 25 25 26 27 34 27 25 20 19 20 20 20 20 21 27 30 19 11 8 5 6 7 6 5 9 9 9 11 12 15 18 19 23 38 40 38 35 32 37 47 42 39 37 35 41 40 28
22 24 21 20 21 22 30 33 28 28 27 18 15 14 18 21 25 31 19 12 9 5 3 6 6 4 9 12 9 8 12 12 13 16 20 22 22 21 19 22 33 45 40 38 43 37 34 30 34
24 17 12 12 9 11 21 25 29 22 19 7 16 9 8 20 24 30 16 13 10 7 3 2 3 3 3 10 12 10 11 8 11 13 14 16 14 11 8 17 24 34 38 44 33 28 31 32 33
30 28 14 12 10 10 10 13 27 17 18 12 9 8 10 17 25 25 15 14 12 9 7 4 2 1 3 5 8 10 9 9 12 12 12 11 10 12 11 14 17 32 34 28 30 35 33 30 34
29 32 30 29 17 2 11 17 25 12 10 15 9 9 12 13 22 21 20 15 13 10 8 7 6 5 5 6 6 6 7 8 8 11 15 15 15 14 14 12 19 21 28 30 35 36 31 32 33
21 19 22 23 14 14 10 7 11 11 11 10 8 11 14 13 16 20 22 15 14 11 11 9 7 8 8 8 8 8 8 8 8 10 10 11 12 17 20 20 18 21 25 25 23 25 29 32 32
27 31 28 20 23 10 8 5 5 10 5 7 2 5 10 8 17 22 21 15 17 12 10 11 9 8 7 8 8 8 9 9 8 8 10 11 12 14 15 17 20 20 18 17 21 25 29 29 30
9 26 31 24 17 18 21 14 9 0 3 4 5 6 2 7 13 19 20 22 17 16 14 11 10 10 8 8 10 10 11 12 11 11 11 11 11 12 13 13 14 16 18 21 26 26 27 28 28

GFSSGP_700_spd_102.txt.gz
Wind_Speed
8 6 7 7 5 5 6 7 7 7 9 9 7 9 9 11 13 15 17 14 13 17 23 25 25 24 16 14 17 20 19 31 18 19 19 20 19 17 14 14 15 16 16 15 16 16 16 17 16
7 7 7 7 6 7 1 8 6 9 6 4 8 13 13 13 14 11 13 18 20 23 25 24 23 19 15 15 19 22 19 22 24 27 23 21 18 16 14 13 14 16 17 17 17 17 17 17 17
10 9 8 7 11 10 5 6 2 6 10 11 15 15 11 7 11 15 16 17 20 22 24 22 23 21 17 16 18 23 23 22 25 26 22 24 22 20 17 13 13 16 19 19 19 18 18 17 17
12 10 9 13 15 8 11 10 9 10 11 13 13 13 9 13 14 13 16 20 20 20 24 26 24 21 20 19 18 21 26 28 28 29 31 30 27 23 17 14 15 18 20 19 18 18 18 18 16
13 12 13 15 15 10 11 13 26 23 21 10 8 10 12 14 15 15 16 17 19 21 27 25 25 22 22 22 21 19 22 28 31 35 35 28 33 36 22 18 14 18 20 19 18 18 17 16 17
16 15 14 19 16 12 10 14 11 19 17 12 10 10 10 11 14 15 15 19 18 24 30 25 22 22 22 23 24 23 21 25 31 40 39 39 38 41 21 22 18 19 21 20 20 18 17 16 16
19 19 23 21 16 11 11 4 11 14 15 16 13 11 14 15 16 17 21 23 26 25 27 24 22 21 20 22 24 26 28 24 31 36 38 41 40 29 23 22 17 19 22 22 22 20 18 17 17
19 20 27 26 18 15 3 7 11 15 17 13 10 10 17 16 17 19 21 23 23 25 26 25 23 23 21 20 22 25 27 27 29 32 36 31 28 25 35 23 19 20 22 22 22 21 18 18 16
21 24 31 29 20 17 10 10 4 14 16 13 9 12 16 19 19 21 20 22 24 30 26 26 22 23 21 20 23 24 27 27 29 29 31 33 30 30 30 22 25 22 23 24 23 21 20 19 19
28 32 31 24 20 22 19 14 13 20 16 16 15 17 15 15 14 18 22 25 31 28 25 24 21 19 21 19 20 20 24 25 31 29 31 30 29 22 22 31 32 27 25 24 23 22 23 21 15
33 37 28 24 20 19 20 20 18 22 19 15 16 20 21 22 17 22 24 31 32 27 25 23 20 19 22 21 22 23 26 28 31 32 32 31 30 27 20 38 34 32 31 29 28 27 25 17 18
36 32 30 26 20 18 21 20 24 22 25 21 18 21 26 24 25 30 32 31 32 26 24 22 24 24 24 24 25 27 28 30 34 35 36 39 41 40 35 40 37 34 32 31 30 27 22 23 18
36 33 28 25 21 20 23 30 32 33 28 27 27 22 28 31 30 32 33 31 28 25 25 24 27 28 28 27 25 26 21 27 34 37 42 41 41 43 42 46 37 36 34 33 32 27 28 24 18
32 28 26 24 25 31 33 33 31 31 28 26 29 26 25 25 26 32 34 33 24 23 25 27 30 32 30 25 23 19 18 22 33 44 47 44 36 39 52 43 39 37 35 34 30 30 29 24 21
24 31 32 33 31 34 33 39 36 27 27 29 25 23 24 27 30 33 33 26 18 21 24 28 31 31 24 18 16 17 15 20 16 17 26 37 45 46 43 40 38 36 37 35 34 34 29 28 24
25 31 36 33 31 31 30 43 34 28 28 24 23 23 25 30 32 30 28 18 17 20 25 28 29 23 12 10 11 15 13 15 7 21 32 36 49 53 47 41 37 37 37 38 37 32 30 28 23
32 37 36 35 29 28 24 37 28 25 29 29 20 19 18 23 33 30 25 19 18 19 26 27 24 12 5 7 9 13 17 9 16 25 34 29 51 47 45 39 34 36 38 39 36 32 29 28 26
29 35 40 36 28 25 30 35 26 22 22 25 20 20 22 23 26 27 24 23 19 17 25 25 20 12 7 7 8 11 17 15 13 29 30 31 52 48 43 39 35 37 38 37 36 34 32 30 29
40 35 38 37 29 25 28 33 32 26 23 18 24 27 22 29 30 29 26 27 20 17 23 22 19 13 9 8 9 10 12 17 14 20 40 47 43 48 43 37 37 39 37 37 37 35 33 34 32
37 41 47 40 32 30 34 41 36 34 30 22 20 24 26 22 34 34 30 28 19 17 21 21 17 14 14 10 10 10 13 20 18 28 42 43 41 50 42 38 37 38 39 39 40 38 36 34 33
35 36 36 33 21 25 28 40 35 38 39 29 22 23 30 33 32 31 35 28 20 16 20 20 17 13 14 12 12 11 12 19 24 29 29 51 36 43 44 39 37 39 39 38 40 38 35 33 32
34 27 33 32 29 24 19 23 31 36 37 38 26 29 28 27 34 35 27 28 21 17 20 18 17 12 12 14 11 12 12 18 32 32 30 40 39 46 44 42 37 38 38 40 39 36 33 31 32
32 18 25 29 33 27 24 18 18 12 27 35 31 27 22 24 25 34 28 25 22 17 17 15 15 11 9 11 8 7 8 14 25 36 37 38 35 38 37 43 44 43 45 40 36 35 34 33 32
27 28 32 30 32 18 14 15 22 12 20 26 32 30 31 25 33 29 26 27 19 21 17 12 13 9 6 12 8 6 6 9 18 24 35 37 38 41 41 39 38 40 37 39 38 38 35 35 31
25 19 8 7 5 6 12 14 35 27 29 30 24 27 26 29 32 27 28 25 19 21 16 10 10 5 3 11 11 9 11 12 14 19 22 36 36 38 35 41 35 37 33 43 48 36 45 38 37
35 31 16 8 5 5 20 8 7 9 13 19 17 24 24 18 23 28 28 23 19 19 15 10 7 3 2 7 12 10 11 12 14 24 17 23 26 37 35 32 32 51 31 34 41 31 41 40 41
40 26 25 25 13 3 6 9 14 20 12 7 1 17 17 17 17 20 20 23 18 17 16 12 10 6 5 6 9 10 10 10 8 15 20 27 27 31 37 36 27 37 37 33 41 31 33 41 39
39 29 19 16 8 6 6 12 14 15 9 1 12 7 10 23 16 15 13 16 17 18 17 15 12 9 8 7 6 7 7 8 8 13 16 20 27 23 40 34 23 21 24 25 26 28 34 38 39
29 37 16 20 15 10 1 6 14 18 12 7 1 10 8 6 25 25 9 10 13 20 18 15 13 10 7 8 8 6 6 5 5 7 13 17 22 22 30 28 21 17 22 30 27 23 30 34 33
23 28 30 13 4 4 3 11 15 7 4 23 12 7 11 17 8 34 24 8 8 20 18 14 13 10 9 9 7 8 8 9 9 9 10 15 22 26 34 33 28 24 23 25 27 27 29 32 32

GFSSGP_700_spd_105.txt.gz
Wind_Speed
11 10 10 9 7 7 6 2 8 8 10 9 8 10 13 16 21 17 13 12 12 13 16 20 20 20 18 13 15 15 16 18 22 24 21 21 20 20 17 15 14 16 16 16 14 14 15 17 15
13 13 11 10 8 9 1 3 2 9 8 9 10 11 14 20 17 13 13 13 14 15 20 21 21 22 18 16 13 17 17 20 22 25 26 22 21 17 16 16 17 17 17 18 16 17 18 18 17
16 13 11 8 12 15 8 4 5 6 8 9 12 15 17 20 22 11 8 13 17 18 16 20 22 22 17 17 15 16 19 26 26 26 27 27 23 20 18 17 17 17 17 19 18 19 19 18 17
16 14 14 17 17 11 11 3 0 6 10 11 12 16 16 17 14 13 11 13 14 16 19 20 25 20 17 18 18 17 18 23 27 28 34 30 26 27 21 16 14 15 18 19 20 20 20 18 16
16 16 18 20 18 16 9 8 13 16 17 16 17 16 17 15 16 13 13 15 15 14 19 23 26 20 17 17 20 20 19 20 30 31 39 30 33 26 26 18 15 15 17 19 20 20 19 17 15
18 19 17 24 18 15 10 11 10 7 14 14 17 17 16 14 16 13 17 15 16 19 23 23 23 21 19 18 18 21 22 22 28 37 39 33 28 34 25 22 19 18 19 20 21 20 18 17 16
22 22 25 24 21 14 3 5 3 3 4 14 16 17 16 12 13 14 15 18 19 20 21 22 24 23 22 19 18 22 25 25 30 34 38 43 38 37 32 22 25 20 21 22 22 19 17 18 16
23 24 29 28 26 16 9 7 7 9 11 13 14 16 15 15 15 14 17 19 22 21 21 25 25 25 22 21 20 22 24 25 30 31 34 33 30 28 31 33 30 24 22 22 22 20 19 18 15
25 29 33 31 27 20 13 12 6 5 4 9 14 15 16 16 17 16 17 18 20 21 23 26 30 26 22 21 20 23 24 27 30 30 30 28 30 27 30 32 27 25 22 22 23 22 21 19 17
29 37 35 29 24 22 18 21 20 16 12 11 10 15 19 18 17 17 18 18 22 23 26 30 30 24 21 20 21 22 24 26 29 30 30 32 30 29 29 22 29 27 25 24 24 24 24 20 20
35 43 31 30 25 22 26 27 19 19 22 14 14 17 18 20 24 25 25 25 25 28 29 27 27 22 22 21 22 23 25 26 26 27 28 29 29 31 27 22 21 31 29 28 27 28 26 23 21
40 40 32 32 28 29 28 25 26 21 28 17 18 21 25 23 23 28 27 27 24 28 32 28 25 26 26 26 25 26 27 29 27 28 32 32 32 30 27 19 19 32 33 31 29 29 27 25 21
42 40 35 33 32 31 27 30 27 33 28 22 21 26 27 27 25 25 27 29 27 28 33 27 26 28 31 33 31 29 28 28 30 30 33 34 35 34 33 28 19 36 36 32 31 31 29 26 22
37 31 35 35 34 33 32 32 30 36 32 26 27 28 27 29 27 26 27 25 26 26 21 25 27 32 35 37 33 27 26 26 26 28 32 35 37 37 36 33 29 44 37 34 32 32 28 26 22
33 39 37 35 32 36 31 41 41 32 29 29 27 31 33 31 31 29 27 31 23 19 19 24 27 32 36 34 26 19 21 21 23 25 32 39 41 45 45 38 34 39 39 38 36 33 29 27 25
29 35 36 35 33 36 31 53 38 30 30 31 34 31 27 26 26 29 27 30 23 20 21 24 27 32 33 27 14 13 16 18 18 22 31 35 51 51 43 41 40 46 44 40 39 36 28 27 26
35 33 29 27 33 29 31 44 39 30 26 24 27 26 24 24 21 24 25 29 25 22 23 23 26 30 29 20 11 10 14 16 14 19 19 29 38 46 42 40 50 50 46 41 40 35 30 27 29
33 34 37 39 35 32 36 44 36 29 32 29 27 25 23 20 20 20 19 21 22 22 24 24 23 28 26 18 11 11 13 17 15 15 14 23 33 32 42 50 49 49 44 42 41 37 32 30 30
42 30 34 34 27 32 38 43 42 37 34 33 26 22 26 24 20 24 20 24 25 24 25 24 23 26 24 18 14 16 13 15 16 15 20 11 28 44 47 48 48 45 43 42 39 38 36 37 33
39 41 44 39 36 32 38 48 42 40 37 33 32 25 21 22 18 24 25 26 28 27 26 24 23 25 23 20 18 17 16 16 18 20 23 25 29 49 50 46 45 42 42 41 39 38 40 37 33
41 42 36 35 31 32 32 43 38 35 36 34 35 32 27 23 21 23 24 26 26 32 25 24 22 24 24 23 20 17 17 17 19 24 23 23 29 51 48 45 41 40 40 40 41 41 40 36 34
39 36 32 31 27 17 18 19 34 32 33 34 34 37 34 27 24 29 26 28 25 23 27 24 21 24 24 23 19 18 15 16 20 21 19 27 48 51 49 44 40 38 39 39 41 41 38 35 33
35 23 26 24 26 29 33 20 14 11 28 31 25 26 40 33 27 28 20 16 22 21 25 23 18 23 23 22 17 15 13 11 16 23 23 35 47 39 49 47 42 40 39 39 40 39 36 34 32
32 21 20 22 20 13 26 21 19 17 20 23 30 27 30 40 28 29 22 19 20 24 25 23 16 20 21 19 12 10 7 4 12 27 21 34 44 39 53 50 46 42 39 39 37 36 36 33 31
22 17 3 3 6 8 10 19 32 10 25 17 23 18 23 32 35 36 29 26 24 26 27 18 15 17 18 16 11 10 7 3 6 23 25 31 36 37 33 36 41 43 42 44 43 41 43 40 33
24 23 10 7 4 3 10 9 12 10 8 15 19 17 13 22 21 26 36 26 27 26 26 16 15 15 14 12 11 12 10 8 7 16 25 29 33 31 34 32 32 37 36 41 48 53 42 47 40
38 21 32 26 14 2 12 16 21 22 17 18 11 3 3 10 23 14 33 25 25 26 19 16 14 15 12 10 10 12 10 10 8 12 18 20 25 30 33 31 34 31 33 27 24 29 48 37 41
40 34 24 14 10 14 6 10 14 12 14 20 6 10 12 8 19 16 21 26 28 25 17 18 16 15 11 7 7 9 10 9 9 12 19 20 22 20 29 33 31 33 34 39 36 34 35 36 34
24 32 22 27 19 9 6 7 14 16 22 15 12 9 13 4 25 25 24 26 29 26 19 18 16 15 11 8 5 7 8 8 8 10 14 15 21 29 27 24 32 36 13 40 29 38 32 34 34
13 27 39 19 8 14 11 13 13 8 10 7 10 17 9 14 6 17 23 25 28 25 21 20 16 16 13 11 8 7 6 6 7 7 10 16 18 23 29 23 27 27 20 19 29 29 29 30 35

GFSSGP_700_spd_108.txt.gz
Wind_Speed
13 12 11 12 8 6 5 3 8 7 10 8 7 8 8 9 17 15 14 9 9 9 10 16 18 17 17 15 13 9 13 13 16 17 19 21 21 21 21 19 16 15 14 14 14 11 11 14 14
14 13 13 13 9 8 3 4 8 10 11 8 9 8 9 13 19 14 9 7 10 13 13 13 19 22 19 13 12 10 11 14 16 17 19 19 20 26 20 19 18 17 15 14 15 14 14 16 16
14 14 14 10 14 15 6 7 8 7 10 9 9 11 10 15 19 11 11 11 13 11 14 16 19 22 19 15 11 10 10 16 18 23 24 22 21 22 17 19 20 18 15 15 15 16 16 18 18
15 16 17 18 18 7 11 8 5 6 10 13 13 11 12 16 15 11 11 10 13 12 12 16 18 21 19 14 13 12 12 15 20 23 29 19 21 22 23 21 18 17 15 16 16 16 19 19 16
17 19 21 20 21 18 13 14 12 11 17 19 16 15 16 13 12 11 10 10 10 11 14 16 17 18 18 14 13 14 15 16 22 27 22 21 25 25 22 21 19 18 17 16 17 18 18 17 16
20 22 19 25 24 19 13 14 13 14 7 12 16 15 14 11 11 10 9 11 13 14 15 17 18 18 19 16 13 15 18 20 23 27 29 28 33 25 33 24 25 20 18 16 18 18 17 16 16
24 24 27 27 25 20 11 12 12 10 8 10 13 14 13 11 11 10 9 12 13 14 16 18 19 18 21 19 15 15 18 21 24 26 32 29 36 33 31 20 26 25 18 18 20 19 18 16 16
26 26 30 31 28 23 12 13 10 13 11 9 9 13 11 10 12 13 13 13 15 16 15 17 19 20 23 20 17 16 18 23 26 26 27 27 29 27 28 24 28 25 22 21 21 19 18 18 16
27 30 34 33 28 23 13 16 14 13 16 17 11 11 15 18 16 16 15 15 17 16 17 18 19 22 22 21 18 17 18 22 26 27 30 16 30 27 30 29 34 13 21 22 22 21 21 20 19
31 38 39 31 27 23 23 20 22 20 17 19 15 10 8 11 13 16 17 19 22 20 18 20 20 21 21 20 20 19 19 23 27 27 30 28 18 28 23 25 21 26 21 30 24 24 23 22 21
36 45 36 31 27 27 28 24 27 31 29 22 19 16 13 14 16 19 20 21 21 19 20 21 23 20 22 22 23 22 23 24 26 29 30 30 27 20 27 28 24 25 25 38 31 28 26 24 21
39 43 36 32 30 31 29 30 33 32 32 27 25 21 21 19 18 22 23 22 19 22 21 24 25 20 22 25 27 27 27 27 28 28 29 27 29 21 23 27 24 17 35 39 31 28 26 25 24
42 43 39 35 33 34 31 35 36 37 29 28 27 23 22 23 23 24 24 24 20 17 20 23 20 19 23 26 30 32 30 27 29 28 28 27 28 27 24 30 21 17 28 35 31 29 25 26 27
40 42 39 41 38 36 37 38 36 37 32 32 30 29 26 26 23 24 27 25 23 22 19 19 19 21 24 28 32 32 29 25 26 27 27 29 30 30 30 30 20 20 22 29 31 29 27 28 26
32 37 38 40 33 36 33 46 44 33 31 34 32 27 28 29 29 31 31 28 24 24 21 21 23 24 26 29 31 29 21 20 21 24 26 28 31 32 31 29 25 22 29 34 33 32 30 30 29
25 31 37 36 37 38 30 55 39 29 27 30 29 27 28 29 32 28 30 25 23 22 17 20 24 26 25 29 28 24 19 15 17 20 22 24 30 34 36 33 32 28 26 35 35 34 32 31 29
34 35 30 30 28 26 28 49 38 32 29 30 29 27 28 28 27 26 26 26 20 20 21 22 24 25 25 28 25 21 16 13 15 17 19 27 32 39 40 40 38 35 32 29 40 36 32 31 32
25 32 35 37 31 25 29 43 40 35 33 32 30 28 28 28 26 23 25 19 19 20 22 23 23 24 25 27 24 20 16 17 16 17 17 18 30 36 46 41 48 33 36 36 41 38 34 32 31
38 32 28 31 27 24 31 43 40 36 36 34 32 32 33 29 28 26 26 23 22 20 22 21 22 24 25 27 23 22 18 19 18 19 17 17 22 29 35 52 39 47 46 45 38 39 37 35 33
40 39 44 40 35 30 36 51 44 43 40 37 37 36 33 32 30 27 29 26 23 19 21 23 23 24 25 28 23 24 20 21 21 20 16 16 15 21 35 42 42 41 41 51 45 43 42 38 34
39 44 38 36 33 33 32 52 45 37 35 29 28 31 32 34 31 23 28 23 21 21 24 25 27 24 25 27 23 23 20 21 21 23 21 19 21 19 34 35 34 45 49 49 44 43 40 38 36
39 36 36 34 27 20 8 16 24 28 31 26 22 23 25 33 36 32 29 25 23 22 23 24 26 24 24 26 22 24 19 20 21 24 23 22 21 20 36 36 43 47 47 45 45 44 41 37 33
33 26 27 26 24 24 26 15 9 3 7 10 13 18 21 29 35 36 29 24 27 26 26 25 21 22 23 24 22 23 16 18 20 24 24 19 23 27 42 42 43 42 41 43 43 42 39 36 33
35 17 8 8 12 8 21 17 6 1 4 7 21 22 19 25 29 38 31 29 25 17 21 22 21 21 22 19 21 19 14 15 17 19 20 18 18 31 51 47 44 42 39 39 38 39 36 34 31
27 20 3 3 6 6 7 16 29 6 6 20 19 21 21 23 25 28 37 32 29 19 20 23 21 19 20 17 18 15 13 13 12 13 15 11 25 32 53 50 46 43 40 37 39 38 37 34 33
26 35 13 7 4 4 14 10 13 2 5 12 20 22 23 23 21 24 34 32 31 28 23 23 19 18 17 15 15 14 12 12 10 7 14 14 19 37 37 50 45 45 46 45 40 39 41 37 36
20 33 33 2 3 1 8 7 15 14 20 22 21 18 24 26 21 21 32 32 32 34 27 24 20 17 15 12 11 11 10 10 11 7 9 19 15 41 23 41 36 44 47 47 51 48 43 43 50
36 26 13 13 6 7 4 6 6 11 8 16 18 19 22 27 20 22 24 30 33 37 32 25 21 19 14 9 6 7 8 10 9 9 9 16 20 28 32 25 26 27 21 29 36 39 43 53 49
29 33 22 21 10 5 2 6 10 17 20 25 16 14 19 26 19 13 16 15 28 33 29 25 23 21 14 8 5 6 6 7 8 8 8 14 16 22 29 26 26 30 21 20 24 27 27 23 35
15 27 32 16 13 15 11 12 5 12 16 18 16 16 16 12 14 9 4 11 20 27 28 25 25 21 16 11 8 6 6 5 5 6 6 8 12 19 21 30 28 34 33 29 14 35 36 18 31

GFSSGP_700_spd_111.txt.gz
Wind_Speed
15 14 13 12 7 6 7 7 10 9 11 14 12 10 3 4 6 8 12 6 4 6 6 8 8 12 13 10 7 4 5 8 9 10 12 15 19 19 17 15 15 12 11 11 10 11 10 12 13
16 14 14 12 9 9 7 10 11 14 12 13 9 9 6 5 10 13 10 5 4 4 6 9 14 17 17 13 9 5 2 6 11 13 15 16 16 16 15 15 18 15 14 13 11 10 10 13 14
16 15 14 9 15 19 8 9 11 14 15 11 12 11 9 5 11 10 8 5 6 7 6 10 15 16 17 14 10 6 4 5 11 12 15 18 21 16 15 23 22 16 14 13 12 12 12 14 16
17 17 16 18 18 7 13 13 12 11 11 14 13 12 12 6 9 7 7 5 5 6 8 11 14 16 17 16 12 8 8 7 11 14 20 24 30 15 18 22 21 13 13 13 13 13 15 16 17
18 19 21 21 22 22 12 15 12 13 14 15 16 18 12 6 8 7 7 4 5 6 9 12 12 16 16 17 13 11 10 10 14 15 17 21 16 32 23 22 20 19 15 15 14 14 16 16 18
20 22 19 27 28 21 13 17 20 18 16 19 22 19 10 5 6 7 7 5 6 7 9 12 12 14 15 16 14 13 13 12 16 18 20 24 24 7 21 22 20 20 17 15 16 15 15 16 15
24 25 26 28 28 22 15 13 18 19 15 12 14 15 10 5 7 9 10 9 11 10 9 11 13 14 14 17 15 11 14 14 18 20 21 21 21 18 22 27 24 27 33 19 17 16 17 16 17
26 27 26 29 30 29 21 15 17 15 16 16 19 18 12 10 10 10 11 13 14 13 12 11 12 14 14 15 15 12 14 15 19 20 22 18 23 20 33 35 20 25 19 21 18 17 19 18 18
26 31 32 31 29 29 16 16 19 18 19 18 17 16 16 18 16 15 14 13 14 15 13 12 12 14 15 15 14 14 15 15 18 21 22 24 25 19 31 25 23 24 17 26 18 19 19 21 21
31 38 40 31 28 27 26 21 21 22 23 19 17 15 18 19 20 17 12 13 15 14 12 11 12 13 15 17 15 16 17 20 18 21 24 27 28 29 18 22 26 17 22 19 31 20 22 23 23
36 44 39 33 29 28 30 28 24 25 31 24 21 21 19 19 18 19 15 14 15 14 16 15 14 15 14 16 18 19 18 22 23 23 25 26 28 29 20 15 28 22 24 22 28 23 23 22 21
40 42 38 33 30 32 32 31 31 31 30 29 26 26 26 24 22 19 20 17 16 18 16 17 17 16 14 15 17 20 23 24 25 26 25 27 28 29 27 15 30 26 24 30 28 26 25 24 24
40 40 38 35 33 34 33 35 33 39 28 30 34 31 32 30 29 26 24 23 21 20 19 19 15 13 13 16 18 22 27 26 25 27 26 27 28 27 26 21 21 25 23 25 27 26 30 27 27
35 34 38 37 36 38 39 39 38 41 29 30 28 30 31 32 30 29 30 29 26 22 22 22 19 16 15 21 24 25 28 26 24 24 25 26 29 28 27 26 20 26 21 18 29 30 29 29 28
34 37 37 37 34 34 33 46 47 35 32 33 30 27 29 30 31 31 30 30 28 24 27 24 22 22 20 20 24 25 26 23 19 17 21 25 29 30 30 29 27 30 23 21 27 33 30 31 31
27 30 27 18 23 29 29 54 22 18 25 25 24 25 24 24 25 25 28 30 29 25 26 25 22 23 22 21 23 24 23 20 16 16 20 23 28 31 33 30 30 26 27 23 28 30 33 33 32
31 29 25 24 17 18 24 40 30 25 27 26 26 26 25 25 26 25 27 28 26 20 23 23 25 25 24 23 23 23 23 17 15 13 16 20 23 28 31 32 37 30 29 31 25 32 34 33 33
20 26 32 32 20 22 26 38 31 28 28 29 31 31 29 27 26 25 26 26 26 24 24 26 26 24 26 24 23 22 24 16 17 14 17 19 21 28 28 36 38 36 32 33 35 32 35 32 32
37 29 29 22 13 18 26 36 36 34 36 34 32 31 31 29 27 25 28 26 27 25 22 24 26 25 25 23 22 21 25 18 19 16 17 23 18 23 27 49 44 43 38 34 32 32 34 36 37
40 39 45 33 33 28 34 45 40 41 39 36 33 33 33 33 30 28 28 29 29 29 27 26 25 23 24 23 22 22 25 21 20 18 18 24 23 19 27 37 46 46 42 40 40 35 44 38 38
38 41 37 35 21 25 32 50 39 36 30 29 29 26 28 30 32 33 32 33 32 31 26 26 25 25 26 24 23 22 25 22 22 16 18 21 22 28 23 39 46 52 45 41 39 39 44 39 39
32 32 30 28 20 19 12 17 12 12 23 23 18 21 24 27 28 31 32 33 29 27 24 26 25 24 26 25 22 22 25 22 19 17 19 22 23 24 30 26 43 45 50 46 41 39 40 39 37
25 18 19 18 23 19 25 14 11 6 11 5 13 18 19 23 24 27 29 33 30 29 28 26 28 31 25 22 21 22 23 21 17 19 21 24 24 25 19 25 33 42 52 49 44 43 46 38 35
34 17 11 11 15 10 23 20 9 13 10 17 9 11 13 12 14 19 26 32 32 31 25 26 28 28 23 19 18 21 20 18 16 18 20 23 24 25 25 25 32 38 39 48 46 43 42 37 34
28 20 8 8 7 9 9 19 25 10 12 10 12 9 13 16 13 12 18 28 33 34 27 20 24 25 20 17 18 19 16 14 15 15 16 16 18 23 17 29 34 30 42 43 39 41 39 36 34
33 33 14 9 7 8 13 12 12 5 23 14 10 15 16 14 15 16 17 21 29 36 30 25 22 23 19 17 18 17 12 11 12 12 14 12 12 20 22 33 30 32 34 37 39 37 36 34 33
27 35 33 7 5 4 10 17 13 15 18 15 15 14 12 16 18 18 20 22 26 34 35 30 23 22 20 16 17 14 11 11 7 9 11 9 9 12 19 30 35 37 37 39 39 38 37 37 38
23 33 19 16 9 7 5 6 7 18 19 19 16 13 15 25 21 22 25 24 26 32 36 32 24 25 20 17 17 13 11 7 5 5 6 8 13 11 26 24 40 44 44 45 45 44 41 43 46
35 21 23 22 13 10 9 7 14 12 15 14 16 16 18 19 19 20 23 22 23 31 34 30 29 28 22 18 17 13 10 7 4 3 2 7 10 10 28 29 24 42 40 34 38 45 49 47 43
27 38 28 23 18 18 11 8 10 14 19 16 13 14 14 18 25 23 22 18 17 23 30 26 34 27 21 20 18 13 11 8 6 4 5 10 8 12 18 31 32 20 19 20 17 12 18 30 29

GFSSGP_700_spd_114.txt.gz
Wind_Speed
17 15 12 11 5 8 14 11 13 8 11 18 14 13 8 6 3 3 8 7 1 3 4 5 6 5 7 5 4 4 6 9 10 11 11 12 14 15 15 13 11 8 8 8 8 8 9 10 11
17 16 13 12 10 16 15 14 14 11 13 18 16 14 8 5 3 6 7 5 1 2 2 2 5 11 12 9 6 3 3 7 11 12 12 14 15 19 20 16 12 9 10 9 9 9 9 10 13
17 16 11 9 16 21 13 11 13 15 18 18 14 14 11 6 4 5 4 3 2 2 1 4 8 12 13 12 8 4 1 3 8 11 13 17 23 22 24 26 9 11 11 11 10 9 9 9 11
16 17 18 17 19 12 14 11 12 13 20 19 15 10 15 9 4 5 5 3 2 2 3 6 9 11 13 15 13 7 4 4 8 10 12 16 21 25 15 14 14 16 13 13 11 10 10 11 13
17 17 17 19 23 20 10 13 17 13 13 20 20 14 13 9 6 6 5 4 5 3 5 7 8 10 12 14 15 10 4 5 8 12 15 19 24 12 23 14 18 15 15 13 12 12 12 12 15
16 19 18 23 23 18 16 18 21 19 16 18 21 18 15 12 8 7 6 6 8 6 7 7 8 9 12 13 14 12 6 6 9 13 15 17 15 18 20 13 20 16 17 14 12 14 12 13 15
20 19 24 23 23 19 16 18 25 18 17 18 20 21 14 14 14 11 9 9 10 11 11 11 10 10 11 12 13 11 7 5 10 14 16 16 18 19 16 10 20 16 13 15 20 22 16 16 19
23 21 25 25 24 23 17 17 18 18 14 24 20 15 15 21 19 16 12 12 12 13 13 15 14 12 12 13 13 10 9 6 7 13 18 19 19 19 17 21 20 23 21 22 20 26 26 18 18
27 25 29 26 22 20 16 12 21 22 17 19 22 24 27 25 22 19 16 12 12 13 15 15 13 13 14 13 14 12 9 9 7 12 17 20 23 24 20 19 19 23 29 26 24 21 25 19 18
32 29 31 24 22 19 14 13 14 21 19 17 20 23 26 28 25 21 19 17 14 13 13 13 13 12 14 14 15 15 12 12 11 11 17 23 27 27 22 16 18 27 20 27 20 24 21 21 22
33 39 25 25 28 27 24 22 19 21 22 20 19 17 24 26 26 25 23 20 16 15 13 16 16 15 15 15 15 15 15 15 15 15 17 23 26 28 25 24 20 23 28 20 26 24 22 22 21
35 30 32 28 29 32 32 25 25 25 25 23 22 27 26 25 26 26 25 22 21 19 16 15 17 16 13 14 15 14 17 19 22 17 19 23 27 29 29 27 25 20 26 25 25 30 24 22 22
33 32 28 28 34 33 33 35 32 31 25 29 33 35 33 29 31 29 27 26 25 23 20 19 18 17 13 13 14 15 19 23 26 20 18 23 28 30 31 28 30 23 26 28 21 28 25 22 25
20 20 24 26 27 30 33 40 33 30 29 29 32 33 36 37 34 35 34 32 30 28 25 23 22 20 18 17 17 18 19 23 26 22 19 22 27 30 30 30 29 24 28 29 20 30 29 25 27
24 27 27 28 27 30 26 40 38 32 31 33 32 33 32 32 34 36 35 36 34 33 31 29 26 25 21 21 22 21 19 22 25 21 17 19 25 30 31 30 29 26 21 25 21 31 29 28 29
22 24 27 20 17 20 23 41 9 12 14 23 24 22 29 31 32 31 30 31 34 34 32 29 30 28 22 22 22 22 19 21 22 20 15 17 22 29 31 33 31 30 27 26 28 31 31 27 30
27 34 27 23 16 16 23 30 19 17 20 23 23 23 23 23 25 25 25 27 30 27 27 26 30 29 25 25 23 24 20 20 20 20 15 15 20 25 29 35 34 31 29 29 24 24 34 30 31
24 29 27 30 25 23 27 33 25 22 19 18 18 20 22 24 25 24 28 29 28 26 25 24 26 28 27 27 25 25 22 20 20 19 17 16 19 24 28 34 41 35 34 33 31 30 38 32 30
31 32 32 26 18 19 24 30 27 25 28 28 29 32 29 27 28 27 30 30 28 28 27 28 27 30 29 28 25 23 23 22 21 20 18 19 22 23 23 25 37 40 40 37 33 29 36 33 35
31 34 40 30 25 24 27 39 32 31 32 31 30 29 30 30 29 29 31 33 29 30 29 30 26 30 29 27 25 24 24 22 22 22 21 21 23 27 25 28 34 37 44 42 38 36 35 36 37
34 35 32 28 22 26 27 45 34 34 34 32 32 31 29 30 30 32 32 33 33 30 30 31 31 30 28 25 26 25 23 23 23 22 21 20 24 27 29 28 37 36 47 47 41 43 38 37 38
33 28 26 25 19 27 18 31 21 11 11 14 16 18 23 29 30 29 28 32 35 34 33 33 32 30 30 27 26 25 23 22 23 24 20 21 24 24 30 34 31 27 46 51 40 42 44 41 38
39 26 21 15 19 21 26 19 18 20 20 13 16 20 25 24 21 22 24 27 33 36 33 32 30 30 29 28 26 24 24 23 24 24 18 19 25 27 28 32 34 34 46 45 44 49 48 42 40
28 18 16 15 16 19 29 24 18 22 12 11 12 12 11 10 11 12 14 22 28 33 32 33 31 30 30 31 29 25 22 22 24 21 17 19 23 25 30 33 33 35 41 49 47 50 45 44 43
33 27 13 12 12 17 15 18 30 8 12 11 13 11 10 8 10 10 10 18 23 27 28 35 33 30 29 33 29 24 21 21 22 18 18 19 22 25 30 28 30 36 36 46 56 49 49 38 38
33 39 20 19 13 15 16 13 16 15 18 18 14 13 10 8 5 5 7 11 14 18 24 35 33 27 27 28 26 23 21 20 19 17 16 19 21 17 20 23 25 30 34 41 48 49 48 36 37
36 37 42 25 18 11 20 21 16 15 19 22 21 15 11 10 11 15 15 13 12 16 21 30 35 31 26 26 27 22 19 18 17 15 15 17 16 15 17 24 25 29 34 34 43 51 52 43 39
33 31 33 28 19 20 22 24 14 19 23 20 22 17 13 13 17 15 16 17 16 14 19 27 35 35 29 27 26 21 18 16 16 13 15 13 10 11 16 15 29 28 31 40 38 35 40 40 41
30 28 35 34 28 15 14 17 16 15 22 20 16 16 15 14 14 14 22 22 19 15 16 24 34 36 31 31 26 21 16 15 15 13 14 11 10 14 15 17 28 30 32 32 30 35 39 42 41
32 28 35 29 30 30 20 11 15 18 18 17 18 15 13 9 13 20 19 21 19 16 17 23 29 35 33 30 26 21 17 15 15 13 12 10 10 11 15 16 26 28 29 34 42 37 35 38 36

GFSSGP_700_spd_117.txt.gz
Wind_Speed
15 14 10 10 8 12 21 21 14 9 13 12 10 12 9 8 7 2 4 10 10 4 8 11 9 8 6 4 5 7 9 13 14 13 12 13 15 16 16 15 12 11 11 9 9 9 9 8 8
15 14 10 8 15 22 21 17 13 13 12 13 12 14 9 6 7 6 10 8 6 3 5 4 1 4 7 6 4 4 4 6 11 13 12 14 15 19 22 21 18 13 11 8 8 9 9 9 9
14 13 9 13 24 26 22 8 14 13 16 13 12 13 10 9 8 6 9 6 3 3 1 1 4 7 10 11 8 4 3 3 7 11 13 14 15 23 24 26 17 15 9 7 6 7 9 9 9
13 13 14 20 24 19 19 14 12 15 11 13 14 11 13 10 9 7 8 5 2 2 2 2 4 6 9 11 11 7 4 4 5 8 11 12 17 25 28 19 18 18 12 9 9 8 8 8 10
13 11 21 24 26 24 17 14 12 14 12 14 16 16 9 14 11 9 8 6 3 3 3 4 4 5 7 10 10 9 5 4 5 8 11 15 15 18 20 5 8 9 12 6 9 9 9 9 10
13 14 24 25 27 23 21 18 17 14 15 14 19 19 14 12 10 13 11 10 7 6 6 5 6 6 7 8 10 9 6 4 5 6 12 13 13 12 11 7 15 7 10 8 6 8 8 10 12
20 21 27 26 27 23 15 16 19 21 17 17 18 20 18 15 22 16 15 13 10 8 8 9 10 9 8 9 9 9 8 5 4 7 11 13 13 12 11 9 11 12 8 7 11 10 11 8 14
21 23 30 30 27 28 20 20 18 20 20 22 16 19 21 28 24 21 20 16 14 11 10 10 12 12 11 10 9 10 9 9 6 7 10 12 14 16 15 13 13 13 12 14 14 17 15 13 15
20 28 34 29 26 25 19 17 16 16 22 16 19 18 18 26 25 25 22 19 17 15 13 11 12 11 11 11 10 11 10 10 10 9 10 14 19 19 18 17 9 11 19 20 19 18 19 17 16
29 30 34 25 23 24 22 17 12 18 22 22 20 22 31 27 25 27 24 22 19 17 16 13 12 12 12 11 11 11 12 11 10 12 14 15 19 21 22 21 17 18 19 25 20 20 20 22 20
29 40 28 26 24 26 26 24 21 21 22 22 22 20 20 17 17 21 20 22 23 20 20 16 14 14 13 12 12 11 10 12 12 13 16 19 21 22 24 25 22 21 19 23 17 19 21 21 22
35 35 30 28 30 27 29 26 27 26 26 23 22 23 23 22 21 21 20 19 19 24 23 20 17 16 14 12 12 12 10 13 15 17 19 19 20 24 26 28 26 25 22 21 22 17 21 22 24
35 34 32 31 30 31 30 33 30 31 26 26 28 28 27 28 25 25 23 21 22 23 28 22 20 20 16 14 12 12 12 14 17 19 20 19 21 22 25 28 27 24 24 18 22 23 24 24 23
28 30 29 33 33 34 32 33 31 34 29 31 33 32 31 29 29 26 26 26 26 30 32 29 25 24 23 19 16 16 18 16 17 19 20 19 20 25 27 28 28 28 24 23 21 29 31 27 24
29 31 33 33 31 29 27 38 38 31 31 34 32 30 32 32 31 31 29 28 27 28 35 34 32 29 28 23 20 20 23 20 18 19 20 18 17 23 27 29 30 29 26 26 23 24 27 29 24
27 29 34 31 28 30 28 51 30 19 22 32 33 33 33 33 32 31 31 31 29 28 28 35 36 35 32 28 24 23 24 22 20 18 19 18 16 20 27 31 31 31 28 27 23 30 23 28 28
31 37 35 34 26 28 24 36 24 24 28 26 24 22 24 25 27 30 28 27 26 28 28 32 33 34 31 31 27 25 24 24 22 20 19 18 18 17 23 29 32 33 28 27 21 27 29 34 33
30 31 33 32 27 29 31 33 28 27 23 22 24 26 27 25 24 23 25 25 24 27 35 35 34 30 29 31 29 28 28 24 23 22 21 21 19 18 21 27 30 33 31 30 32 30 29 32 31
32 34 37 33 25 25 30 32 30 27 29 31 30 28 26 25 23 25 25 25 27 30 37 34 33 29 29 31 30 28 27 24 24 24 22 23 22 21 22 25 30 34 35 36 35 31 31 30 31
36 37 42 40 34 32 34 34 31 29 32 32 32 31 31 29 27 26 25 27 30 34 35 35 32 31 30 30 29 31 29 26 26 26 24 23 25 24 24 27 29 33 34 38 39 39 35 32 38
43 41 43 36 31 28 31 41 37 36 35 36 37 35 32 30 27 26 26 27 33 35 36 35 33 32 32 29 32 33 31 29 27 24 25 26 27 25 26 29 29 32 30 37 38 37 40 36 37
37 39 37 34 30 31 29 31 32 30 28 28 30 32 31 29 27 27 28 27 26 33 36 38 34 33 32 30 31 31 30 27 25 26 26 26 28 26 27 28 31 32 31 44 37 40 38 40 39
45 34 33 29 29 31 33 32 26 21 27 23 18 17 18 19 19 19 19 20 22 26 36 35 35 35 33 33 32 31 30 27 27 26 27 26 28 26 26 28 28 34 30 35 33 40 44 41 40
31 30 34 28 29 23 37 35 33 27 17 15 15 16 17 13 11 11 13 19 20 30 32 30 34 36 33 34 33 32 30 28 26 25 27 26 27 26 26 25 28 33 34 34 37 46 49 48 45
35 30 23 20 20 20 35 33 34 18 19 19 14 13 11 9 7 6 7 15 20 26 27 27 31 36 32 32 32 31 29 28 26 26 26 27 27 26 25 27 32 32 33 34 39 40 54 50 50
40 37 27 24 16 23 33 24 31 24 26 16 16 15 11 8 6 8 7 9 13 16 25 25 30 36 34 31 30 30 29 28 27 25 26 27 27 26 27 28 31 31 32 36 42 38 56 52 52
35 43 39 39 29 20 22 29 26 20 18 23 17 14 11 6 9 9 10 9 12 12 16 24 29 32 35 33 31 30 27 28 25 24 25 26 26 24 26 25 23 32 35 33 36 38 48 54 51
30 33 36 38 23 23 21 25 29 24 20 25 20 14 10 10 11 8 9 10 14 14 13 18 25 28 34 34 30 28 27 28 25 23 24 24 24 23 24 26 24 26 30 35 34 32 41 54 56
21 32 33 30 36 18 15 21 23 20 23 27 21 16 11 7 11 9 9 14 13 14 16 16 21 26 31 35 30 29 30 27 23 22 23 22 22 22 23 20 21 17 29 27 29 30 33 41 51
12 27 33 23 28 33 28 23 7 20 19 21 23 17 12 8 11 8 14 16 15 14 15 16 19 25 30 32 32 31 31 27 23 21 22 20 20 21 22 22 18 17 23 28 31 28 33 39 40

GFSSGP_700_spd_120.txt.gz
Wind_Speed
12 10 9 9 7 11 19 23 20 17 4 11 5 7 9 4 2 6 12 12 11 17 14 6 6 4 6 5 4 5 7 8 11 11 9 10 11 13 13 14 12 11 12 10 9 10 9 9 9
12 10 7 4 14 18 24 24 17 14 11 13 12 7 11 3 10 11 13 12 15 15 8 2 3 4 5 5 3 3 3 3 6 8 8 9 12 15 19 21 19 17 13 10 9 9 9 9 9
12 10 7 10 19 27 27 24 16 6 12 15 14 11 8 9 10 8 16 11 13 10 3 2 3 5 7 7 6 4 3 3 4 6 9 10 17 16 19 19 21 20 18 11 10 9 9 9 10
10 12 13 19 25 21 25 21 14 7 9 11 10 10 12 11 9 11 17 14 14 10 2 3 4 6 8 9 9 8 4 2 4 6 8 12 11 10 21 13 20 19 13 16 12 9 8 8 9
12 10 17 20 25 24 26 25 18 12 6 8 13 15 10 18 10 10 17 14 11 11 0 2 3 5 6 8 9 9 7 3 4 6 8 6 7 8 11 12 9 13 26 16 14 8 6 7 9
11 11 21 25 26 25 24 23 18 14 13 13 12 17 15 17 19 20 14 13 11 10 3 1 1 4 6 7 9 9 8 6 5 5 4 5 6 8 5 5 2 4 1 13 12 6 3 3 8
19 19 29 27 26 25 24 15 14 17 18 18 15 17 18 18 20 21 17 18 15 13 6 6 6 6 7 8 7 10 9 8 7 6 4 5 7 10 8 5 3 3 10 13 11 11 4 2 7
19 21 31 32 31 30 23 25 14 15 19 20 16 19 17 28 23 24 23 25 20 16 11 8 8 8 8 9 6 8 9 8 9 8 5 6 9 11 10 7 7 7 10 11 12 10 8 7 8
20 29 38 31 29 29 23 24 20 17 16 19 16 19 15 17 25 25 26 26 24 19 15 11 10 10 9 9 7 8 10 10 9 9 8 8 10 14 13 10 13 9 15 15 15 10 10 13 12
24 34 38 26 27 29 26 25 18 15 21 21 16 21 23 17 25 24 28 28 26 22 17 15 13 12 11 11 9 9 10 10 9 10 11 10 11 13 15 16 15 12 16 14 15 15 15 17 17
24 42 30 31 29 28 29 29 23 19 19 20 27 23 28 24 17 17 17 23 28 26 21 18 16 14 14 13 11 10 10 10 10 12 13 14 12 13 19 18 19 20 16 15 12 19 19 17 22
30 34 32 34 30 32 31 27 29 26 27 24 23 22 26 23 22 21 20 21 20 24 24 22 19 17 15 15 13 10 9 8 9 11 15 16 15 12 19 20 21 22 20 17 15 17 19 16 21
28 30 31 34 35 36 35 36 34 31 28 27 27 31 22 24 28 30 24 21 21 23 26 24 22 19 19 16 16 12 9 10 11 12 15 18 17 14 16 21 23 22 21 20 16 17 17 19 19
27 30 32 31 32 35 37 38 32 46 31 31 32 35 34 31 31 34 31 28 27 27 26 29 25 23 23 21 21 18 12 13 13 14 16 18 18 16 16 21 22 21 22 19 18 16 17 19 20
22 28 31 33 33 33 28 37 41 42 33 34 35 37 38 40 36 38 31 30 31 32 31 35 34 29 30 26 25 23 18 16 14 17 17 17 18 17 15 19 23 24 23 20 19 20 17 22 24
27 29 34 32 27 32 32 52 40 34 33 34 35 39 39 36 35 37 31 31 30 27 32 34 34 30 36 30 27 26 24 19 15 17 19 17 17 17 17 19 23 25 25 22 22 21 19 28 28
27 32 33 38 32 33 35 50 37 28 31 35 29 23 36 33 35 34 32 35 33 34 33 36 38 40 31 31 30 30 27 24 19 17 20 20 17 18 17 17 22 26 27 25 24 21 22 21 30
29 28 32 34 30 36 34 44 36 29 29 29 28 32 26 27 29 33 37 34 33 37 34 37 41 45 33 29 29 29 31 28 24 19 21 22 20 18 19 18 20 26 28 27 26 23 19 27 26
36 36 40 43 35 34 40 36 37 32 29 31 31 26 30 29 27 27 25 30 36 32 32 39 43 44 35 30 30 29 30 28 27 21 22 23 21 20 21 20 22 24 29 28 28 27 26 25 29
40 43 47 48 41 35 36 40 41 32 30 31 33 33 34 30 25 25 27 29 30 31 35 39 43 45 37 32 31 29 32 28 28 26 25 24 22 23 23 23 23 26 27 29 31 32 32 30 31
40 39 47 45 40 32 31 36 40 43 41 35 40 38 31 31 32 34 33 32 33 35 39 43 43 38 36 34 35 31 30 31 32 29 26 24 23 24 24 26 25 27 29 29 31 33 39 36 33
44 40 44 40 38 33 29 25 36 37 38 40 43 39 41 37 33 31 29 30 31 34 39 42 41 40 38 36 33 31 32 34 32 29 26 26 25 26 27 27 25 28 30 29 31 28 39 40 40
44 42 33 35 42 34 35 27 43 37 39 38 38 40 34 34 35 34 31 29 31 34 39 43 39 37 42 35 32 31 32 31 31 29 28 29 27 27 27 27 25 28 30 32 32 28 38 38 42
34 37 37 35 34 26 33 34 30 35 38 30 23 26 25 20 29 29 28 26 25 28 30 33 32 30 40 36 32 31 33 31 33 31 30 28 29 29 28 26 25 27 31 32 36 30 38 33 41
31 31 21 23 20 14 37 35 33 17 31 34 23 21 18 19 18 16 12 18 23 30 31 33 32 30 36 35 33 32 34 34 33 31 30 30 30 30 28 26 27 27 29 31 31 36 36 41 44
37 29 26 22 15 17 35 28 40 34 28 18 10 18 19 14 17 17 18 20 22 25 25 26 29 31 38 30 31 33 34 34 32 30 30 31 29 29 28 28 29 29 33 33 34 32 35 38 39
20 25 27 34 38 20 25 27 35 34 28 24 18 19 16 14 16 19 17 9 13 14 15 20 23 29 31 29 32 34 31 31 32 32 30 31 28 28 26 29 31 32 34 32 36 35 38 34 46
14 20 21 30 21 20 22 31 24 27 26 22 24 20 22 24 17 19 10 9 11 16 17 18 19 24 27 30 32 33 32 32 33 31 31 30 28 26 28 29 30 33 28 26 30 40 36 34 37
23 19 24 25 32 14 13 20 27 14 30 30 29 27 28 19 25 14 10 10 10 11 17 18 20 21 25 27 31 33 34 31 32 31 31 29 26 26 28 28 29 27 21 24 31 36 38 36 41
21 23 15 20 27 27 26 31 26 20 12 24 25 27 29 23 22 14 11 10 12 13 15 18 21 21 24 27 29 33 33 31 31 32 30 27 25 26 26 25 25 24 26 24 26 38 35 33 35

GFSSGP_700_spd_123.txt.gz
Wind_Speed
9 9 11 10 8 8 14 19 12 10 18 9 8 11 1 6 7 7 15 13 8 10 14 19 17 5 2 1 2 4 4 6 7 7 7 10 13 16 16 15 14 12 11 11 11 11 11 10 10
8 11 12 11 11 12 18 16 15 24 22 20 17 15 7 8 12 11 8 8 9 13 16 17 8 3 3 2 1 2 2 3 3 4 7 12 14 14 14 16 19 21 17 14 12 11 10 11 11
10 11 14 11 15 23 22 17 13 18 15 13 15 15 19 9 10 13 12 12 13 12 14 12 4 3 4 4 3 3 1 2 1 4 6 6 7 8 11 14 20 25 19 19 14 11 11 11 12
12 13 12 19 22 18 18 18 22 21 18 12 9 11 12 12 13 16 22 17 13 12 15 8 1 4 5 6 6 6 5 3 2 1 0 3 4 8 9 13 16 12 22 23 18 13 12 12 12
15 15 18 21 23 22 21 24 21 18 10 5 5 4 9 18 19 16 21 22 14 13 14 7 1 3 5 6 6 6 7 7 5 4 3 3 6 5 5 1 6 11 28 21 17 15 11 10 10
17 15 19 25 25 18 15 18 25 31 25 5 5 10 10 19 26 27 28 29 17 14 12 9 2 1 3 5 5 6 7 6 6 5 2 5 6 5 3 1 3 4 9 19 22 20 13 10 11
19 16 26 26 22 20 20 17 20 18 16 23 12 10 16 25 26 25 27 26 18 15 12 11 6 4 6 6 5 5 7 7 5 4 3 3 5 5 5 4 2 4 16 22 21 17 16 13 12
18 21 33 32 30 33 19 19 20 25 19 17 15 14 17 25 23 24 26 24 22 21 14 12 9 7 8 8 7 5 6 6 6 4 5 5 5 6 5 7 4 6 16 19 19 18 13 13 14
21 29 38 32 29 31 21 23 19 24 26 25 20 21 24 27 26 25 26 25 24 21 17 14 12 11 10 10 8 7 6 6 5 5 6 7 5 6 7 9 6 6 16 15 14 14 11 15 16
23 37 37 31 30 29 26 30 32 24 17 15 20 18 24 24 20 24 29 30 29 23 19 16 14 13 12 12 10 8 8 6 4 5 7 9 7 5 10 10 11 9 13 16 14 14 10 9 14
22 34 28 31 30 29 34 39 33 27 18 17 24 15 26 31 33 32 27 27 28 23 24 23 17 15 14 12 12 10 9 7 4 5 7 10 10 7 8 12 12 14 13 15 11 11 16 14 14
22 27 30 34 32 33 37 38 41 35 27 21 22 21 19 31 35 33 32 38 31 29 30 25 21 19 16 15 13 13 10 9 5 4 8 11 13 12 10 11 15 15 17 13 13 13 11 12 16
24 25 26 29 30 33 35 42 44 46 34 26 32 31 26 23 30 30 26 26 23 25 23 25 23 22 19 17 15 15 12 11 9 6 7 11 13 14 14 10 15 16 18 18 15 15 14 13 19
24 28 33 34 34 35 34 39 37 49 40 39 35 40 36 31 28 26 31 33 26 24 25 26 27 22 21 19 18 17 17 14 12 10 8 10 13 14 15 12 12 14 17 19 17 15 14 12 16
22 29 30 34 31 33 36 45 43 49 39 35 42 38 45 39 37 32 34 40 38 31 28 31 34 31 25 24 22 22 19 19 18 13 12 11 12 14 16 14 10 12 18 19 19 15 16 14 20
27 31 38 40 34 33 27 43 41 42 36 43 41 39 43 51 43 44 40 40 41 41 41 37 38 36 29 25 27 27 24 21 22 17 15 13 12 13 16 16 12 12 18 20 19 18 16 15 19
19 28 32 42 34 34 31 41 40 35 36 39 36 39 37 39 33 40 49 48 49 41 38 37 33 33 32 28 27 27 28 25 22 23 19 17 14 13 16 17 15 14 16 18 21 22 20 17 14
33 28 35 39 40 29 34 41 39 38 29 36 34 36 34 38 38 36 29 35 32 32 33 36 38 38 36 31 35 29 30 29 27 25 25 22 17 15 15 18 17 15 16 21 24 25 24 21 20
36 34 38 49 47 39 41 43 41 37 45 29 30 39 34 28 28 30 25 31 32 33 34 38 40 40 40 40 40 31 28 26 26 26 27 26 22 19 17 18 19 16 18 19 23 24 25 24 23
35 38 43 44 41 34 37 42 46 40 44 37 35 31 27 33 25 30 27 30 31 38 41 39 44 44 42 42 42 36 28 26 26 27 30 28 25 23 20 20 20 19 16 21 25 27 29 28 26
37 38 39 42 47 43 37 44 49 44 43 42 46 38 34 32 28 32 30 22 32 32 37 41 40 39 40 41 43 41 33 29 27 30 31 30 28 26 22 23 22 22 19 20 24 26 29 31 30
41 35 37 41 40 35 33 26 40 42 42 41 48 44 40 37 35 29 33 31 29 34 37 39 40 41 40 42 46 41 33 30 26 28 31 32 29 27 27 25 24 24 21 19 24 27 28 33 34
26 29 36 38 44 38 41 24 52 35 38 44 40 35 42 37 40 40 31 31 37 38 37 38 39 41 44 45 47 44 35 30 29 30 34 34 30 30 30 27 26 25 22 20 23 28 30 33 32
36 41 38 37 36 23 32 30 47 34 43 43 39 40 39 39 34 28 40 30 33 31 35 41 43 43 45 46 44 42 34 32 30 30 32 33 32 32 31 28 27 26 22 21 22 27 31 34 30
28 30 10 8 10 14 25 31 35 21 27 30 28 27 18 23 30 36 38 34 36 38 35 34 37 41 42 43 39 35 34 34 30 31 30 32 32 31 30 27 28 27 22 22 24 28 33 35 35
41 29 19 7 4 13 28 23 39 31 45 30 21 17 22 32 30 33 34 40 43 37 35 32 31 35 40 38 30 32 33 34 32 32 32 31 31 31 30 28 29 27 23 24 27 28 34 37 36
23 15 24 25 24 16 18 33 28 36 39 35 21 26 19 18 30 35 38 37 39 39 37 37 37 40 40 36 33 33 33 34 33 32 33 30 31 32 31 28 28 26 24 26 29 31 35 38 38
28 21 12 5 4 5 12 25 31 22 26 25 28 28 28 31 27 29 29 30 30 25 26 26 27 30 32 31 32 33 32 33 33 29 31 29 30 32 29 27 29 25 25 26 27 31 30 38 42
31 29 27 12 15 3 5 16 21 21 22 21 21 37 33 33 27 22 22 19 20 19 18 21 25 26 26 28 30 33 33 32 32 31 30 31 33 32 27 28 28 24 25 24 24 25 27 29 35
12 26 23 17 5 21 14 23 23 12 29 21 30 36 34 29 26 23 22 22 17 14 16 18 21 23 26 27 30 31 33 34 35 34 35 35 34 31 29 29 25 23 24 22 23 28 30 31 38

GFSSGP_700_spd_126.txt.gz
Wind_Speed
12 13 13 13 10 10 13 15 13 9 16 9 11 10 17 15 12 7 8 10 6 4 6 13 16 17 10 8 9 10 10 10 11 12 13 14 15 16 17 17 17 17 16 16 14 13 13 13 13
12 13 14 17 13 17 17 16 13 9 9 4 8 17 17 19 16 7 3 4 4 6 9 11 14 12 7 5 5 6 6 7 8 8 9 9 10 12 13 12 12 14 14 15 15 14 13 13 13
13 13 15 13 19 26 23 14 7 3 6 10 15 13 17 14 12 12 11 6 6 7 8 11 12 8 5 3 2 2 3 4 4 3 4 5 8 12 14 14 14 14 20 20 17 16 13 13 12
15 16 20 23 26 19 19 16 10 9 4 13 22 13 16 16 20 21 16 11 11 8 9 12 10 8 4 1 0 1 2 2 1 3 6 7 11 12 11 11 14 20 17 25 24 19 16 13 14
16 19 24 26 31 26 20 16 12 17 23 19 19 19 21 23 20 19 17 19 18 13 12 11 11 10 6 1 2 3 3 4 3 4 6 9 9 8 9 10 9 19 22 30 30 22 20 16 15
19 21 22 26 31 25 20 14 14 15 17 8 18 14 18 20 21 20 17 18 20 20 15 10 12 10 8 2 2 2 2 3 2 2 2 3 4 7 9 8 5 3 19 28 29 24 22 18 14
22 26 31 31 32 30 19 17 14 17 16 10 15 12 20 19 20 21 19 17 19 17 15 12 12 11 8 4 2 2 2 2 1 0 1 2 3 5 7 7 3 4 12 26 27 23 21 17 15
20 27 34 35 33 38 20 22 18 20 15 10 19 22 21 23 27 26 23 19 18 18 19 15 11 11 9 6 3 2 3 2 1 1 1 2 3 4 6 8 4 3 14 30 28 24 21 17 16
20 30 35 34 33 37 28 28 24 24 25 9 9 22 25 20 27 29 26 23 21 22 20 13 13 11 10 8 5 4 4 4 3 1 2 3 4 4 7 8 7 7 15 26 23 18 16 15 14
22 32 35 33 32 36 33 29 29 29 23 12 11 13 19 21 28 34 31 28 22 23 19 17 15 13 13 12 8 7 6 5 4 3 1 3 4 3 8 9 10 10 16 19 20 18 16 14 13
22 30 29 30 30 30 31 33 29 33 36 24 17 2 11 19 24 27 29 27 23 23 21 21 18 17 16 15 12 10 9 7 6 4 1 3 6 5 5 10 10 13 14 17 19 19 17 13 11
24 25 27 28 26 28 33 34 35 37 42 35 28 26 13 26 27 29 31 30 29 28 29 26 23 23 19 18 16 13 11 9 7 7 4 3 5 7 4 7 11 14 15 17 18 14 13 13 15
23 26 28 30 29 30 30 35 37 42 46 43 37 37 31 24 26 31 32 33 32 33 31 29 26 24 25 22 18 17 13 12 10 10 7 5 5 7 8 5 6 13 18 19 17 16 15 14 13
25 29 30 31 32 34 35 37 37 44 43 48 44 44 40 34 29 28 28 36 32 30 31 24 23 24 24 24 22 19 16 15 14 12 10 8 8 6 8 8 1 9 16 21 21 17 17 16 17
23 30 32 32 31 33 31 40 43 39 40 43 48 50 49 42 35 36 29 27 35 32 29 27 23 23 24 23 23 22 21 18 16 16 14 13 11 9 7 8 4 7 13 20 22 22 19 18 15
24 26 30 34 29 28 22 41 41 37 36 38 41 47 52 54 45 41 37 28 28 31 33 30 29 29 28 28 25 25 24 23 20 19 18 16 15 13 9 8 6 4 12 18 22 22 19 20 19
16 24 30 44 30 30 27 39 39 32 36 38 39 40 38 61 58 49 45 41 38 35 35 37 38 36 34 31 27 21 22 26 25 23 21 20 20 18 14 11 8 6 7 14 20 22 22 21 18
25 31 37 40 47 37 44 39 46 39 38 40 39 45 40 37 55 59 50 51 49 45 45 43 44 42 41 34 27 26 27 26 25 27 24 23 23 22 19 15 13 9 8 13 18 22 24 22 17
26 31 40 50 48 37 40 49 48 42 38 42 45 45 45 41 34 31 46 47 37 46 54 55 49 43 41 39 33 32 30 29 24 26 28 26 26 26 23 20 17 13 11 11 16 21 23 25 23
28 37 44 52 47 36 42 49 55 49 48 44 44 43 46 48 36 36 36 33 36 38 45 51 43 43 42 40 38 35 31 31 26 25 26 28 29 29 27 24 21 16 15 14 16 20 25 27 28
40 29 36 37 51 52 48 54 50 58 52 51 48 46 45 44 43 37 35 31 31 40 37 39 41 41 41 37 42 37 33 33 30 28 29 29 30 30 30 28 24 19 18 17 17 21 25 27 29
35 29 32 41 44 34 41 33 56 53 54 55 54 48 42 42 51 36 39 32 30 33 37 36 42 42 40 39 40 37 35 34 32 28 28 29 30 32 33 30 28 23 20 19 18 20 23 27 29
30 30 42 45 46 40 53 28 56 40 45 52 49 44 39 38 47 49 38 35 27 26 31 37 37 38 40 38 37 34 34 33 33 30 29 31 30 33 34 32 30 26 22 21 20 20 25 29 30
29 34 45 44 27 13 55 34 46 44 43 41 35 33 37 36 36 39 33 45 32 28 30 34 39 39 39 35 34 34 34 36 36 36 34 32 31 33 34 34 33 29 25 23 21 21 25 28 32
26 32 9 7 2 12 29 27 42 35 30 29 25 28 25 24 25 39 38 42 36 39 31 37 39 39 36 35 34 35 37 38 37 36 35 32 32 33 35 36 35 30 26 24 23 23 25 28 32
39 17 12 7 9 19 35 13 25 27 28 32 27 29 30 29 30 22 35 43 43 44 40 37 34 35 38 34 34 36 39 37 36 34 34 33 31 30 34 36 33 31 27 26 25 25 25 28 32
19 25 22 21 23 14 10 20 34 22 19 15 19 29 29 24 26 24 25 30 32 32 38 38 40 38 36 34 34 35 36 37 35 33 34 33 31 30 32 35 34 30 28 27 25 25 26 27 31
16 21 18 19 7 6 7 17 17 29 25 24 31 27 29 22 29 29 26 27 29 34 36 35 36 35 34 35 35 37 37 37 37 34 33 32 31 28 29 31 30 28 29 27 25 26 27 28 32
17 23 18 20 14 7 6 5 25 29 23 26 34 12 19 14 23 26 26 26 26 28 27 29 31 33 33 35 37 36 38 43 41 34 33 33 29 28 28 30 29 29 28 25 26 28 27 27 28
8 26 21 12 16 17 12 9 14 22 29 32 13 5 20 24 26 25 25 21 20 23 24 22 23 26 29 32 32 32 32 33 29 31 28 31 27 29 29 29 28 28 27 26 27 27 28 29 32

GFSSGP_700_spd_129.txt.gz
Wind_Speed
15 15 14 14 10 8 8 10 4 11 9 13 7 9 11 11 18 16 16 18 13 7 2 4 8 11 14 14 13 12 13 13 14 14 15 16 16 15 14 14 13 12 12 12 15 15 15 15 15
16 17 16 15 13 13 15 15 14 5 5 5 6 11 8 8 11 7 8 11 8 4 2 5 8 10 11 12 10 9 9 9 9 9 10 10 11 12 12 13 13 12 11 13 13 14 14 16 15
18 17 18 10 17 26 18 16 9 6 6 6 10 11 19 15 13 9 4 4 3 4 2 4 7 9 9 9 10 7 5 4 5 6 7 8 9 11 12 14 14 13 12 12 15 17 14 15 15
17 18 20 20 20 13 11 12 15 13 11 5 13 13 17 19 21 16 18 17 9 5 3 5 8 8 8 9 8 6 3 2 4 6 7 8 10 10 10 13 15 16 16 18 19 20 18 16 13
18 21 24 26 26 24 20 22 20 16 15 11 20 15 19 23 26 26 22 16 12 11 9 13 9 7 6 7 5 4 2 4 5 4 4 6 6 8 10 13 15 16 19 19 20 22 21 17 16
19 23 22 26 27 25 20 21 24 21 16 11 12 12 22 23 25 22 15 13 13 12 12 9 7 6 6 6 3 3 1 3 3 3 3 3 5 8 10 11 13 14 17 21 23 24 21 17 13
21 23 29 30 29 28 20 22 23 25 20 12 14 14 13 23 20 18 17 16 15 13 13 12 9 8 6 6 4 3 1 2 3 3 2 3 5 7 8 10 11 11 9 21 26 25 26 20 19
21 25 31 32 31 33 21 25 26 27 28 20 16 17 17 13 26 26 22 18 17 16 16 16 14 12 8 6 4 3 2 3 3 3 3 3 3 6 8 9 9 9 11 22 31 29 25 21 18
21 26 31 32 31 31 24 27 24 27 32 28 19 16 17 17 27 28 27 24 21 21 18 17 15 10 11 8 7 5 4 4 4 4 2 2 2 5 7 9 10 8 10 25 24 26 25 20 20
22 28 30 30 30 32 30 29 27 32 32 32 27 15 10 15 24 34 29 28 25 24 23 19 15 13 12 11 10 8 7 5 5 5 3 2 1 3 6 8 10 7 8 24 28 27 21 16 15
24 27 25 28 28 29 30 29 28 33 37 29 31 22 12 10 28 37 37 30 25 22 25 21 20 18 16 14 12 12 10 8 6 7 4 2 2 2 3 5 9 10 12 17 22 22 18 14 15
24 22 26 28 27 28 29 31 31 32 38 35 32 35 23 15 13 39 37 32 29 26 25 24 23 22 20 19 17 15 13 11 8 9 6 2 2 4 3 3 8 11 13 18 19 19 16 16 15
22 24 25 28 28 29 32 35 36 36 28 33 36 37 35 28 23 21 28 40 36 32 28 26 26 27 26 22 21 18 16 13 12 10 10 5 2 4 5 2 6 12 16 17 19 18 15 15 14
24 28 27 28 25 27 32 38 36 36 33 33 36 38 38 39 36 33 32 31 45 39 34 30 29 26 28 28 25 21 19 17 16 13 12 10 6 4 5 5 1 9 15 18 19 19 17 17 17
22 30 28 31 26 25 31 44 40 36 35 37 36 39 39 39 46 44 40 35 32 35 42 34 28 27 25 27 26 25 23 20 18 15 15 14 12 8 5 5 3 5 13 19 23 24 22 21 19
24 28 28 25 29 25 27 46 43 38 36 39 42 41 38 36 42 46 49 44 38 37 37 38 32 31 27 25 24 21 24 23 22 19 19 18 17 14 11 8 5 2 10 17 23 26 25 22 20
17 22 32 41 27 28 22 45 45 43 43 43 41 44 45 43 39 43 50 51 45 39 33 39 38 37 34 31 29 25 25 22 25 23 22 21 21 20 17 13 10 6 5 11 19 23 23 22 22
19 27 34 38 43 42 39 51 58 55 54 50 49 47 48 48 44 39 39 43 50 45 42 37 36 37 35 33 34 29 26 25 22 21 24 24 25 25 22 19 15 12 9 8 13 19 22 23 23
20 28 36 44 45 45 43 51 59 58 55 60 56 55 52 52 49 45 42 37 47 46 42 48 44 40 38 40 38 35 33 28 27 22 19 25 28 27 27 24 21 17 13 11 11 15 20 25 26
24 33 41 52 41 40 49 60 59 57 60 54 56 59 58 54 53 49 44 42 37 52 49 42 53 50 48 47 44 39 34 31 31 30 23 21 27 31 30 28 25 22 18 16 14 13 19 24 27
25 27 36 34 46 48 46 55 58 50 50 50 50 50 54 61 54 52 49 46 39 38 46 43 45 52 55 55 47 44 41 39 37 34 28 23 24 29 31 31 28 26 23 20 17 15 16 21 27
33 29 29 38 43 31 52 26 59 51 51 48 47 48 43 56 56 50 45 45 42 36 34 42 46 44 53 52 54 47 41 42 39 33 27 22 23 27 27 31 31 30 27 24 20 18 17 19 24
27 25 34 41 42 40 49 12 36 53 55 56 41 38 41 36 49 49 39 40 43 36 39 31 39 44 42 48 46 41 42 39 39 35 26 25 24 26 28 30 33 32 30 27 23 21 20 20 23
24 33 33 31 19 6 25 13 44 48 44 46 38 31 17 17 25 31 34 29 43 50 47 29 30 37 42 45 42 39 37 38 36 35 30 26 28 31 31 30 35 34 32 30 25 23 23 22 25
29 32 8 7 4 10 31 28 30 44 46 37 34 25 17 13 19 25 29 33 42 38 45 30 22 28 39 40 41 39 36 32 28 28 27 27 30 32 32 30 33 35 34 32 28 26 25 25 25
27 14 5 6 9 21 37 8 25 32 40 31 26 22 20 19 21 26 27 31 48 32 34 35 26 24 37 27 31 31 28 28 31 28 27 29 32 33 33 30 32 35 35 33 30 28 27 27 27
10 13 20 18 26 15 11 25 33 39 40 42 32 23 23 22 19 27 23 29 39 40 37 46 36 28 30 38 31 31 31 30 30 31 29 32 34 33 34 32 32 36 36 33 31 28 28 28 28
12 13 14 10 6 9 10 24 25 38 44 44 50 30 6 8 13 7 11 18 33 44 36 37 38 34 31 30 33 31 28 31 34 34 33 33 32 34 36 31 31 34 34 33 29 28 28 28 29
6 18 21 19 12 5 8 15 31 29 37 41 46 32 8 13 10 13 18 20 27 33 34 34 33 35 32 31 28 27 28 32 34 35 35 32 31 34 36 31 30 31 30 29 29 28 28 30 30
10 27 21 10 13 27 22 29 12 30 31 31 35 28 13 8 11 12 15 15 17 23 21 24 25 24 27 27 28 29 33 33 35 35 32 32 36 37 34 30 29 28 28 29 27 28 28 29 31

GFSSGP_700_spd_132.txt.gz
Wind_Speed
15 14 13 13 6 3 5 3 3 7 5 11 10 9 11 13 16 5 8 16 16 13 8 2 2 4 7 9 11 12 11 10 10 11 12 15 16 16 13 10 9 8 9 9 9 11 13 14 14
17 16 15 14 8 7 9 13 8 6 7 11 9 10 8 12 9 8 7 9 16 12 4 1 3 6 7 9 10 10 10 9 8 8 9 11 12 11 10 9 9 9 9 8 9 11 12 13 13
17 17 15 9 12 16 13 11 10 7 12 15 15 10 7 9 11 13 7 4 10 8 5 2 6 6 6 7 9 9 8 8 7 7 9 10 10 9 9 9 10 10 10 9 10 12 14 13 14
17 17 14 14 16 14 7 8 15 17 17 12 14 7 5 5 15 11 11 8 7 2 3 2 8 7 4 5 6 7 7 7 7 7 7 7 6 6 8 9 11 12 12 11 11 11 12 14 12
19 19 18 18 21 20 17 18 21 22 21 18 18 15 8 12 9 13 14 12 7 7 5 7 6 5 4 5 5 6 5 6 6 5 4 3 3 6 8 10 12 13 13 14 15 13 13 17 14
21 22 19 20 20 17 15 18 22 21 21 20 21 14 7 9 13 19 14 10 8 6 5 5 2 4 4 3 4 5 5 5 5 4 4 3 5 7 9 10 12 12 13 16 18 17 14 15 13
21 23 24 23 22 22 18 22 24 25 23 21 22 21 13 9 18 23 19 15 15 13 9 6 4 6 6 4 4 5 4 5 5 5 4 4 5 8 9 10 10 11 13 14 18 20 15 15 13
21 23 24 24 24 26 20 24 25 25 27 21 23 19 19 13 10 26 26 22 18 15 13 10 6 7 7 3 5 4 4 4 4 4 4 4 5 7 9 10 9 11 10 10 16 20 17 17 15
20 21 24 25 24 25 22 27 22 27 30 26 23 23 19 21 16 24 30 29 24 19 19 15 12 8 9 6 6 6 5 4 4 4 4 4 5 6 8 10 10 9 9 10 16 20 18 16 15
19 22 21 18 21 26 27 25 24 30 30 25 26 24 21 19 21 18 32 35 30 27 23 20 16 12 11 12 9 8 8 6 4 4 4 4 4 6 7 9 10 10 9 10 17 18 17 17 15
19 20 20 21 24 26 29 27 27 28 32 26 27 27 25 21 19 19 26 38 34 31 29 24 19 16 15 16 13 11 11 9 6 5 4 3 4 4 4 7 9 10 8 9 17 16 16 16 16
17 18 20 21 21 26 28 31 28 27 28 27 28 28 29 27 21 16 17 40 40 36 31 28 22 18 19 19 18 15 14 12 9 7 6 4 4 3 3 5 9 10 8 9 13 16 17 16 15
16 16 18 20 22 26 30 31 32 30 26 31 31 30 30 31 28 24 20 24 42 41 35 33 28 25 23 24 24 22 18 16 13 10 8 7 4 4 4 4 6 10 12 13 14 16 18 17 15
19 22 21 22 25 28 34 34 33 34 35 32 34 35 35 34 34 33 30 27 32 47 45 40 35 30 27 26 28 27 24 19 17 15 11 11 7 5 3 4 4 9 13 16 17 19 18 17 16
18 23 24 25 25 29 37 40 37 36 38 38 37 39 40 39 38 37 37 35 33 37 50 48 41 36 33 31 30 31 29 25 21 18 16 14 12 8 6 4 5 4 12 17 20 22 24 23 20
21 25 20 19 28 29 33 55 44 40 44 47 44 42 44 47 46 42 40 39 37 36 40 50 46 43 40 34 30 28 29 28 25 23 20 18 16 14 11 8 7 5 6 14 20 24 26 24 21
17 21 25 30 23 31 33 52 49 50 48 51 51 51 50 50 51 50 46 42 40 39 41 40 42 46 45 38 33 27 27 26 27 25 24 22 20 20 17 14 12 9 7 7 14 19 24 25 22
16 24 29 33 30 40 39 50 53 53 44 43 41 44 51 55 55 55 50 50 44 43 44 44 45 42 40 44 39 35 31 29 26 22 23 25 24 24 23 20 18 16 11 9 9 12 19 23 24
18 25 34 34 31 32 39 51 56 45 46 46 48 46 40 45 55 59 60 53 51 45 39 45 48 45 39 47 45 42 39 35 30 25 23 21 24 26 26 24 23 21 17 12 11 11 14 20 24
22 27 31 31 29 37 44 48 47 42 41 39 42 46 48 50 48 48 60 60 56 48 40 41 43 46 47 40 46 45 40 40 33 27 27 24 20 21 27 27 26 25 23 19 16 14 13 15 21
20 19 23 31 42 39 13 49 41 36 37 40 43 47 45 44 51 51 49 61 59 52 42 35 42 41 47 47 44 43 43 42 40 34 29 28 26 23 22 28 29 28 27 24 21 18 16 15 17
23 17 21 30 29 26 30 14 41 47 37 43 46 45 45 42 44 49 51 52 60 53 44 39 34 40 45 47 51 51 48 45 41 32 34 32 32 27 21 23 26 31 31 28 26 22 19 19 18
14 22 26 24 22 19 11 4 34 42 37 44 60 52 42 38 36 41 40 44 51 48 45 38 39 35 46 48 45 53 56 49 40 36 39 35 33 30 24 23 26 29 31 32 30 26 23 21 21
20 22 18 14 9 3 6 13 43 27 37 45 56 65 39 31 29 22 20 18 22 35 27 37 36 31 41 52 47 47 53 53 48 44 43 38 35 32 27 23 25 29 30 33 33 28 26 24 23
12 20 8 7 4 5 20 25 22 31 40 42 55 58 38 24 19 8 11 11 21 25 27 36 39 38 36 43 45 41 43 40 41 41 41 41 37 36 31 28 26 27 30 33 34 31 29 28 24
11 17 5 3 4 13 33 8 19 41 37 43 48 52 29 24 20 8 9 15 26 29 28 26 36 42 34 36 40 41 36 43 39 39 39 38 35 36 32 28 28 29 30 32 35 34 32 30 27
6 11 2 8 12 8 12 18 41 25 40 48 51 53 50 21 23 15 6 10 21 26 28 29 31 39 31 24 26 36 41 43 39 36 39 33 32 38 31 29 30 31 31 33 35 36 33 31 29
5 15 6 5 4 6 6 17 15 41 49 49 44 44 43 24 16 13 6 4 18 24 30 32 22 43 29 26 29 28 38 38 41 34 36 37 37 35 32 30 31 30 31 33 36 37 34 32 30
3 8 14 8 6 3 6 14 22 38 45 43 41 39 36 29 12 8 8 13 8 16 31 32 26 46 23 25 29 36 33 37 32 31 31 34 36 32 29 28 30 30 31 33 34 35 33 31 30
7 13 17 5 4 14 12 14 14 42 37 33 37 46 35 24 14 5 15 16 11 16 19 27 20 30 31 20 28 30 35 40 39 29 31 33 32 29 27 27 29 29 31 31 32 33 32 31 30